Observation data for Throckmorton on 11/06/2019      Previous  Date       Current Mesonet Observations  Soil Data  Daily Summary Page  Observations in Plain Language
KTH1 060600Z 16002KT 10/09 A302 RMK A01 T00950091  RH  097%=      5-min Rain = 0
KTH1 060601Z 17001KT 09/09 A302 RMK A01 T00940091  RH  097%=      5-min Rain = 0
KTH1 060602Z 16001KT 10/09 A302 RMK A01 T00950091  RH  097%=      5-min Rain = 0
KTH1 060603Z 17001KT 09/09 A302 RMK A01 T00940090  RH  097%=      5-min Rain = 0
KTH1 060604Z 16002KT 09/09 A302 RMK A01 T00930089  RH  097%=      5-min Rain = 0
KTH1 060605Z 16002KT 09/09 A302 RMK A01 T00930088  RH  097%=      5-min Rain = 0
KTH1 060606Z 16002KT 09/09 A302 RMK A01 T00920088  RH  097%=      5-min Rain = 0
KTH1 060607Z 16002KT 09/09 A3019 RMK A01 T00920087  RH  097%=      5-min Rain = 0
KTH1 060608Z 15001KT 09/09 A3019 RMK A01 T00910086  RH  097%=      5-min Rain = 0
KTH1 060609Z 16001KT 09/09 A3019 RMK A01 T00910085  RH  097%=      5-min Rain = 0
KTH1 060610Z 15001KT 09/09 A3019 RMK A01 T00900085  RH  097%=      5-min Rain = 0
KTH1 060611Z 16001KT 09/08 A3019 RMK A01 T00890084  RH  096%=      5-min Rain = 0
KTH1 060612Z 15001KT 09/08 A3019 RMK A01 T00890084  RH  097%=      5-min Rain = 0
KTH1 060613Z 15002KT 09/08 A3019 RMK A01 T00890084  RH  097%=      5-min Rain = 0
KTH1 060614Z 14002KT 09/09 A3019 RMK A01 T00890085  RH  097%=      5-min Rain = 0
KTH1 060615Z 15002KT 09/09 A3019 RMK A01 T00890085  RH  097%=      5-min Rain = 0
KTH1 060616Z 15002KT 09/09 A3019 RMK A01 T00890085  RH  097%=      5-min Rain = 0
KTH1 060617Z 15002KT 09/09 A3019 RMK A01 T00890085  RH  097%=      5-min Rain = 0
KTH1 060618Z 15002KT 09/09 A3019 RMK A01 T00890085  RH  097%=      5-min Rain = 0
KTH1 060619Z 15002KT 09/08 A3019 RMK A01 T00890084  RH  097%=      5-min Rain = 0
KTH1 060620Z 15002KT 09/08 A3019 RMK A01 T00890084  RH  097%=      5-min Rain = 0
KTH1 060621Z 15002KT 09/09 A3019 RMK A01 T00890085  RH  097%=      5-min Rain = 0
KTH1 060622Z 15002KT 09/09 A3019 RMK A01 T00890086  RH  098%=      5-min Rain = 0
KTH1 060623Z 15003KT 09/09 A3019 RMK A01 T00900087  RH  098%=      5-min Rain = 0
KTH1 060624Z 15003KT 09/09 A3019 RMK A01 T00910088  RH  098%=      5-min Rain = 0
KTH1 060625Z 16002KT 09/09 A3019 RMK A01 T00910088  RH  098%=      5-min Rain = 0
KTH1 060626Z 16003KT 09/09 A3019 RMK A01 T00910088  RH  098%=      5-min Rain = 0
KTH1 060627Z 16003KT 09/09 A3019 RMK A01 T00910088  RH  098%=      5-min Rain = 0
KTH1 060628Z 16004KT 09/09 A3019 RMK A01 T00910089  RH  098%=      5-min Rain = 0
KTH1 060629Z 16004KT 09/09 A3019 RMK A01 T00920089  RH  098%=      5-min Rain = 0
KTH1 060630Z 15004KT 09/09 A3019 RMK A01 T00920090  RH  098%=      5-min Rain = 0
KTH1 060631Z 15004KT 09/09 A3019 RMK A01 T00930091  RH  098%=      5-min Rain = 0
KTH1 060632Z 15004KT 09/09 A3018 RMK A01 T00930091  RH  098%=      5-min Rain = 0
KTH1 060633Z 15004KT 09/09 A3018 RMK A01 T00940092  RH  099%=      5-min Rain = 0
KTH1 060634Z 15004KT 09/09 A3018 RMK A01 T00940092  RH  099%=      5-min Rain = 0
KTH1 060635Z 15004KT 10/09 A3018 RMK A01 T00950093  RH  099%=      5-min Rain = 0
KTH1 060636Z 15004KT 10/09 A3018 RMK A01 T00960094  RH  099%=      5-min Rain = 0
KTH1 060637Z 15004KT 10/09 A3018 RMK A01 T00960094  RH  099%=      5-min Rain = 0
KTH1 060638Z 15004KT 10/10 A3018 RMK A01 T00970095  RH  099%=      5-min Rain = 0
KTH1 060639Z 15004KT 10/10 A3018 RMK A01 T00970095  RH  099%=      5-min Rain = 0
KTH1 060640Z 15004KT 10/10 A3018 RMK A01 T00970095  RH  099%=      5-min Rain = 0
KTH1 060641Z 16004KT 10/10 A3018 RMK A01 T00980096  RH  099%=      5-min Rain = 0
KTH1 060642Z 16004KT 10/10 A3018 RMK A01 T00980096  RH  099%=      5-min Rain = 0
KTH1 060643Z 15004KT 10/10 A3018 RMK A01 T00990097  RH  099%=      5-min Rain = 0
KTH1 060644Z 16005KT 10/10 A3018 RMK A01 T01000098  RH  099%=      5-min Rain = 0
KTH1 060645Z 16005KT 10/10 A3018 RMK A01 T01010099  RH  099%=      5-min Rain = 0
KTH1 060646Z 16004KT 10/10 A3018 RMK A01 T01010099  RH  099%=      5-min Rain = 0
KTH1 060647Z 16005KT 10/10 A3018 RMK A01 T01020100  RH  099%=      5-min Rain = 0
KTH1 060648Z 16005KT 10/10 A3018 RMK A01 T01020100  RH  099%=      5-min Rain = 0
KTH1 060649Z 16006KT 10/10 A3018 RMK A01 T01020101  RH  099%=      5-min Rain = 0
KTH1 060650Z 16004KT 10/10 A3018 RMK A01 T01030101  RH  099%=      5-min Rain = 0
KTH1 060651Z 16005KT 10/10 A3018 RMK A01 T01030101  RH  099%=      5-min Rain = 0
KTH1 060652Z 16005KT 10/10 A3018 RMK A01 T01030101  RH  099%=      5-min Rain = 0
KTH1 060653Z 16005KT 10/10 A3018 RMK A01 T01030101  RH  099%=      5-min Rain = 0
KTH1 060654Z 16004KT 10/10 A3018 RMK A01 T01040102  RH  099%=      5-min Rain = 0
KTH1 060655Z 16004KT 10/10 A3018 RMK A01 T01040102  RH  099%=      5-min Rain = 0
KTH1 060656Z 16004KT 10/10 A3018 RMK A01 T01040102  RH  099%=      5-min Rain = 0
KTH1 060657Z 16005KT 10/10 A3018 RMK A01 T01040102  RH  098%=      5-min Rain = 0
KTH1 060658Z 16004KT 11/10 A3018 RMK A01 T01050102  RH  098%=      5-min Rain = 0
KTH1 060659Z 16004KT 10/10 A3018 RMK A01 T01040102  RH  098%=      5-min Rain = 0
KTH1 060700Z 17004KT 10/10 A3018 RMK A01 T01040102  RH  098%=      5-min Rain = 0
KTH1 060701Z 16003KT 10/10 A3018 RMK A01 T01040102  RH  098%=      5-min Rain = 0
KTH1 060702Z 16004KT 10/10 A3018 RMK A01 T01040102  RH  098%=      5-min Rain = 0
KTH1 060703Z 16004KT 10/10 A3018 RMK A01 T01040102  RH  098%=      5-min Rain = 0
KTH1 060704Z 16003KT 10/10 A3018 RMK A01 T01040102  RH  098%=      5-min Rain = 0
KTH1 060705Z 15003KT 10/10 A3018 RMK A01 T01040102  RH  098%=      5-min Rain = 0
KTH1 060706Z 15003KT 10/10 A3018 RMK A01 T01040102  RH  098%=      5-min Rain = 0
KTH1 060707Z 16002KT 10/10 A3018 RMK A01 T01040102  RH  098%=      5-min Rain = 0
KTH1 060708Z 16003KT 10/10 A3018 RMK A01 T01040101  RH  098%=      5-min Rain = 0
KTH1 060709Z 16003KT 10/10 A3019 RMK A01 T01040101  RH  098%=      5-min Rain = 0
KTH1 060710Z 17002KT 10/10 A3019 RMK A01 T01040101  RH  098%=      5-min Rain = 0
KTH1 060711Z 17003KT 10/10 A3019 RMK A01 T01040101  RH  098%=      5-min Rain = 0
KTH1 060712Z 16002KT 10/10 A3019 RMK A01 T01040101  RH  098%=      5-min Rain = 0
KTH1 060713Z 17001KT 10/10 A3019 RMK A01 T01040101  RH  098%=      5-min Rain = 0
KTH1 060714Z 17002KT 10/10 A3019 RMK A01 T01040101  RH  098%=      5-min Rain = 0
KTH1 060715Z 16003KT 10/10 A3019 RMK A01 T01040101  RH  098%=      5-min Rain = 0
KTH1 060716Z 17003KT 10/10 A3019 RMK A01 T01040101  RH  098%=      5-min Rain = 0
KTH1 060717Z 17003KT 10/10 A3019 RMK A01 T01040101  RH  098%=      5-min Rain = 0
KTH1 060718Z 18002KT 10/10 A3019 RMK A01 T01040101  RH  098%=      5-min Rain = 0
KTH1 060719Z 17002KT 10/10 A3019 RMK A01 T01040102  RH  098%=      5-min Rain = 0
KTH1 060720Z 18002KT 10/10 A3019 RMK A01 T01040101  RH  098%=      5-min Rain = 0
KTH1 060721Z 19002KT 10/10 A3019 RMK A01 T01040101  RH  098%=      5-min Rain = 0
KTH1 060722Z 19002KT 11/10 A3019 RMK A01 T01050102  RH  098%=      5-min Rain = 0
KTH1 060723Z 21000KT 11/10 A3019 RMK A01 T01050102  RH  098%=      5-min Rain = 0
KTH1 060724Z 17002KT 11/10 A3019 RMK A01 T01050102  RH  098%=      5-min Rain = 0
KTH1 060725Z 15002KT 11/10 A3019 RMK A01 T01060103  RH  098%=      5-min Rain = 0
KTH1 060726Z 16002KT 11/10 A3019 RMK A01 T01060103  RH  098%=      5-min Rain = 0
KTH1 060727Z 16002KT 11/10 A3019 RMK A01 T01060104  RH  098%=      5-min Rain = 0
KTH1 060728Z 14002KT 11/10 A3019 RMK A01 T01070104  RH  098%=      5-min Rain = 0
KTH1 060729Z 15002KT 11/10 A3019 RMK A01 T01070104  RH  098%=      5-min Rain = 0
KTH1 060730Z 14002KT 11/10 A3019 RMK A01 T01070104  RH  098%=      5-min Rain = 0
KTH1 060731Z 15002KT 11/10 A3019 RMK A01 T01070104  RH  098%=      5-min Rain = 0
KTH1 060732Z 14002KT 11/10 A3019 RMK A01 T01080104  RH  098%=      5-min Rain = 0
KTH1 060733Z 14002KT 11/10 A3019 RMK A01 T01080104  RH  098%=      5-min Rain = 0
KTH1 060734Z 14002KT 11/10 A3019 RMK A01 T01070104  RH  098%=      5-min Rain = 0
KTH1 060735Z 14002KT 11/10 A3019 RMK A01 T01070103  RH  098%=      5-min Rain = 0
KTH1 060736Z 14003KT 11/10 A3019 RMK A01 T01070103  RH  098%=      5-min Rain = 0
KTH1 060737Z 13002KT 11/10 A3019 RMK A01 T01070103  RH  097%=      5-min Rain = 0
KTH1 060738Z 14001KT 11/10 A3019 RMK A01 T01070103  RH  097%=      5-min Rain = 0
KTH1 060739Z 12001KT 11/10 A3019 RMK A01 T01070103  RH  097%=      5-min Rain = 0
KTH1 060740Z 11001KT 11/10 A3019 RMK A01 T01070103  RH  097%=      5-min Rain = 0
KTH1 060741Z 12001KT 11/10 A3019 RMK A01 T01070103  RH  097%=      5-min Rain = 0
KTH1 060742Z 13001KT 11/10 A3019 RMK A01 T01070102  RH  097%=      5-min Rain = 0
KTH1 060743Z 12001KT 11/10 A3019 RMK A01 T01070103  RH  097%=      5-min Rain = 0
KTH1 060744Z 13001KT 11/10 A3019 RMK A01 T01070103  RH  097%=      5-min Rain = 0
KTH1 060745Z 14001KT 11/10 A3019 RMK A01 T01070102  RH  097%=      5-min Rain = 0
KTH1 060746Z 14002KT 11/10 A3019 RMK A01 T01070103  RH  097%=      5-min Rain = 0
KTH1 060747Z 13002KT 11/10 A3019 RMK A01 T01070103  RH  097%=      5-min Rain = 0
KTH1 060748Z 14002KT 11/10 A3019 RMK A01 T01070103  RH  097%=      5-min Rain = 0
KTH1 060749Z 14002KT 11/10 A3019 RMK A01 T01080104  RH  097%=      5-min Rain = 0
KTH1 060750Z 14002KT 11/10 A3019 RMK A01 T01080104  RH  097%=      5-min Rain = 0
KTH1 060751Z 14002KT 11/10 A3019 RMK A01 T01080104  RH  097%=      5-min Rain = 0
KTH1 060752Z 14002KT 11/10 A3019 RMK A01 T01080103  RH  097%=      5-min Rain = 0
KTH1 060753Z 15002KT 11/10 A3019 RMK A01 T01070103  RH  097%=      5-min Rain = 0
KTH1 060754Z 15002KT 11/10 A3019 RMK A01 T01070103  RH  097%=      5-min Rain = 0
KTH1 060755Z 15002KT 11/10 A3019 RMK A01 T01080103  RH  097%=      5-min Rain = 0
KTH1 060756Z 15002KT 11/10 A3019 RMK A01 T01070103  RH  097%=      5-min Rain = 0
KTH1 060757Z 15002KT 11/10 A3019 RMK A01 T01080103  RH  097%=      5-min Rain = 0
KTH1 060758Z 15002KT 11/10 A3019 RMK A01 T01070103  RH  097%=      5-min Rain = 0
KTH1 060759Z 16002KT 11/10 A3019 RMK A01 T01070103  RH  097%=      5-min Rain = 0
KTH1 060800Z 17001KT 11/10 A3019 RMK A01 T01070103  RH  097%=      5-min Rain = 0
KTH1 060801Z 17001KT 11/10 A3019 RMK A01 T01070103  RH  097%=      5-min Rain = 0
KTH1 060802Z 16001KT 11/10 A3019 RMK A01 T01070103  RH  097%=      5-min Rain = 0
KTH1 060803Z 16001KT 11/10 A3019 RMK A01 T01070103  RH  097%=      5-min Rain = 0
KTH1 060804Z 16001KT 11/10 A3019 RMK A01 T01070103  RH  097%=      5-min Rain = 0
KTH1 060805Z 16000KT 11/10 A3019 RMK A01 T01070103  RH  097%=      5-min Rain = 0
KTH1 060806Z 16000KT 11/10 A3019 RMK A01 T01080103  RH  097%=      5-min Rain = 0
KTH1 060807Z 00000KT 11/10 A3019 RMK A01 T01070103  RH  097%=      5-min Rain = 0
KTH1 060808Z 16000KT 11/10 A3019 RMK A01 T01070103  RH  097%=      5-min Rain = 0
KTH1 060809Z 16000KT 11/10 A3019 RMK A01 T01080103  RH  097%=      5-min Rain = 0
KTH1 060810Z 00000KT 11/10 A3019 RMK A01 T01080103  RH  097%=      5-min Rain = 0
KTH1 060811Z 16000KT 11/10 A3019 RMK A01 T01080103  RH  097%=      5-min Rain = 0
KTH1 060812Z 16001KT 11/10 A3019 RMK A01 T01070103  RH  097%=      5-min Rain = 0
KTH1 060813Z 16001KT 11/10 A3019 RMK A01 T01080103  RH  097%=      5-min Rain = 0
KTH1 060814Z 17001KT 11/10 A3019 RMK A01 T01070103  RH  097%=      5-min Rain = 0
KTH1 060815Z 18000KT 11/10 A3019 RMK A01 T01080103  RH  097%=      5-min Rain = 0
KTH1 060816Z 18001KT 11/10 A3019 RMK A01 T01070103  RH  097%=      5-min Rain = 0
KTH1 060817Z 18001KT 11/10 A3019 RMK A01 T01080104  RH  097%=      5-min Rain = 0
KTH1 060818Z 18001KT 11/10 A3019 RMK A01 T01080103  RH  097%=      5-min Rain = 0
KTH1 060819Z 18000KT 11/10 A3019 RMK A01 T01080103  RH  097%=      5-min Rain = 0
KTH1 060820Z 18000KT 11/10 A3019 RMK A01 T01080103  RH  097%=      5-min Rain = 0
KTH1 060821Z 00000KT 11/10 A3019 RMK A01 T01080103  RH  097%=      5-min Rain = 0
KTH1 060822Z 00000KT 11/10 A3019 RMK A01 T01080104  RH  097%=      5-min Rain = 0
KTH1 060823Z 00000KT 11/10 A3019 RMK A01 T01080104  RH  097%=      5-min Rain = 0
KTH1 060824Z 00000KT 11/10 A3019 RMK A01 T01080104  RH  097%=      5-min Rain = 0
KTH1 060825Z 00000KT 11/10 A3019 RMK A01 T01080104  RH  097%=      5-min Rain = 0
KTH1 060826Z 18000KT 11/10 A3019 RMK A01 T01080104  RH  097%=      5-min Rain = 0
KTH1 060827Z 18000KT 11/10 A3019 RMK A01 T01090104  RH  097%=      5-min Rain = 0
KTH1 060828Z 18000KT 11/10 A3019 RMK A01 T01080104  RH  097%=      5-min Rain = 0
KTH1 060829Z 18001KT 11/10 A3019 RMK A01 T01090104  RH  097%=      5-min Rain = 0
KTH1 060830Z 18001KT 11/10 A3019 RMK A01 T01090104  RH  097%=      5-min Rain = 0
KTH1 060831Z 18000KT 11/10 A3019 RMK A01 T01080104  RH  097%=      5-min Rain = 0
KTH1 060832Z 00000KT 11/10 A3019 RMK A01 T01080104  RH  097%=      5-min Rain = 0
KTH1 060833Z 00000KT 11/10 A3019 RMK A01 T01090104  RH  097%=      5-min Rain = 0
KTH1 060834Z 00000KT 11/11 A3019 RMK A01 T01090105  RH  097%=      5-min Rain = 0
KTH1 060835Z 00000KT 11/11 A3019 RMK A01 T01090105  RH  097%=      5-min Rain = 0
KTH1 060836Z 00000KT 11/11 A3019 RMK A01 T01090105  RH  097%=      5-min Rain = 0
KTH1 060837Z 00000KT 11/11 A3019 RMK A01 T01090105  RH  097%=      5-min Rain = 0
KTH1 060838Z 00000KT 11/11 A3019 RMK A01 T01090105  RH  097%=      5-min Rain = 0
KTH1 060839Z 00000KT 11/11 A3019 RMK A01 T01100106  RH  097%=      5-min Rain = 0
KTH1 060840Z 00000KT 11/11 A3018 RMK A01 T01100105  RH  097%=      5-min Rain = 0
KTH1 060841Z 18000KT 11/11 A3018 RMK A01 T01100106  RH  097%=      5-min Rain = 0
KTH1 060842Z 12001KT 11/11 A3018 RMK A01 T01100106  RH  097%=      5-min Rain = 0
KTH1 060843Z 02001KT 11/11 A3018 RMK A01 T01110106  RH  097%=      5-min Rain = 0
KTH1 060844Z 03001KT 11/11 A3018 RMK A01 T01110106  RH  097%=      5-min Rain = 0
KTH1 060845Z 02001KT 11/11 A3018 RMK A01 T01110106  RH  097%=      5-min Rain = 0
KTH1 060846Z 02001KT 11/11 A3018 RMK A01 T01110106  RH  097%=      5-min Rain = 0
KTH1 060847Z 02001KT 11/11 A3018 RMK A01 T01110105  RH  097%=      5-min Rain = 0
KTH1 060848Z 03001KT 11/11 A3018 RMK A01 T01110105  RH  097%=      5-min Rain = 0
KTH1 060849Z 04001KT 11/11 A3018 RMK A01 T01110105  RH  097%=      5-min Rain = 0
KTH1 060850Z 05001KT 11/11 A3018 RMK A01 T01110105  RH  097%=      5-min Rain = 0
KTH1 060851Z 05001KT 11/11 A3018 RMK A01 T01110105  RH  097%=      5-min Rain = 0
KTH1 060852Z 06000KT 11/11 A3018 RMK A01 T01110106  RH  096%=      5-min Rain = 0
KTH1 060853Z 09000KT 11/11 A3018 RMK A01 T01110106  RH  096%=      5-min Rain = 0
KTH1 060854Z 09000KT 11/11 A3018 RMK A01 T01110106  RH  096%=      5-min Rain = 0
KTH1 060855Z 09000KT 11/11 A3018 RMK A01 T01120106  RH  097%=      5-min Rain = 0
KTH1 060856Z 00000KT 11/11 A3018 RMK A01 T01120107  RH  097%=      5-min Rain = 0
KTH1 060857Z 09001KT 11/11 A3018 RMK A01 T01120107  RH  097%=      5-min Rain = 0
KTH1 060858Z 09001KT 11/11 A3018 RMK A01 T01120107  RH  096%=      5-min Rain = 0
KTH1 060859Z 10001KT 11/11 A3018 RMK A01 T01120106  RH  096%=      5-min Rain = 0
KTH1 060900Z 10001KT 11/11 A3018 RMK A01 T01120106  RH  096%=      5-min Rain = 0
KTH1 060901Z 10001KT 11/11 A3018 RMK A01 T01130107  RH  096%=      5-min Rain = 0
KTH1 060902Z 10001KT 11/11 A3018 RMK A01 T01120106  RH  096%=      5-min Rain = 0
KTH1 060903Z 10001KT 11/11 A3018 RMK A01 T01130106  RH  096%=      5-min Rain = 0
KTH1 060904Z 10001KT 11/11 A3018 RMK A01 T01130106  RH  096%=      5-min Rain = 0
KTH1 060905Z 10001KT 11/11 A3018 RMK A01 T01130106  RH  095%=      5-min Rain = 0
KTH1 060906Z 10001KT 11/11 A3018 RMK A01 T01120105  RH  095%=      5-min Rain = 0
KTH1 060907Z 09001KT 11/11 A3018 RMK A01 T01130105  RH  095%=      5-min Rain = 0
KTH1 060908Z 09002KT 11/11 A3018 RMK A01 T01130105  RH  095%=      5-min Rain = 0
KTH1 060909Z 07002KT 11/11 A3018 RMK A01 T01130105  RH  095%=      5-min Rain = 0
KTH1 060910Z 08002KT 11/11 A3018 RMK A01 T01120105  RH  095%=      5-min Rain = 0
KTH1 060911Z 07002KT 11/11 A3018 RMK A01 T01130105  RH  095%=      5-min Rain = 0
KTH1 060912Z 07002KT 11/11 A3018 RMK A01 T01130105  RH  095%=      5-min Rain = 0
KTH1 060913Z 07002KT 11/11 A3018 RMK A01 T01120105  RH  095%=      5-min Rain = 0
KTH1 060914Z 06002KT 11/11 A3018 RMK A01 T01120105  RH  095%=      5-min Rain = 0
KTH1 060915Z 07002KT 11/11 A3018 RMK A01 T01120105  RH  095%=      5-min Rain = 0
KTH1 060916Z 06002KT 11/11 A3018 RMK A01 T01130105  RH  095%=      5-min Rain = 0
KTH1 060917Z 06002KT 11/11 A3018 RMK A01 T01130105  RH  095%=      5-min Rain = 0
KTH1 060918Z 07002KT 11/11 A3018 RMK A01 T01130105  RH  095%=      5-min Rain = 0
KTH1 060919Z 08002KT 11/11 A3018 RMK A01 T01130106  RH  095%=      5-min Rain = 0
KTH1 060920Z 07002KT 11/11 A3018 RMK A01 T01130105  RH  095%=      5-min Rain = 0
KTH1 060921Z 07002KT 11/11 A3018 RMK A01 T01130105  RH  095%=      5-min Rain = 0
KTH1 060922Z 07002KT 11/11 A3018 RMK A01 T01140105  RH  095%=      5-min Rain = 0
KTH1 060923Z 07003KT 11/11 A3018 RMK A01 T01130105  RH  094%=      5-min Rain = 0
KTH1 060924Z 08003KT 11/11 A3018 RMK A01 T01130105  RH  094%=      5-min Rain = 0
KTH1 060925Z 09002KT 11/10 A3018 RMK A01 T01130104  RH  094%=      5-min Rain = 0
KTH1 060926Z 09003KT 11/10 A3018 RMK A01 T01130104  RH  094%=      5-min Rain = 0
KTH1 060927Z 09002KT 11/11 A3018 RMK A01 T01140105  RH  094%=      5-min Rain = 0
KTH1 060928Z 09003KT 11/11 A3018 RMK A01 T01130105  RH  094%=      5-min Rain = 0
KTH1 060929Z 09003KT 11/11 A3018 RMK A01 T01140105  RH  094%=      5-min Rain = 0
KTH1 060930Z 09003KT 11/11 A3018 RMK A01 T01130105  RH  094%=      5-min Rain = 0
KTH1 060931Z 09003KT 11/11 A3018 RMK A01 T01130105  RH  094%=      5-min Rain = 0
KTH1 060932Z 09003KT 11/11 A3018 RMK A01 T01140105  RH  094%=      5-min Rain = 0
KTH1 060933Z 08003KT 11/11 A3018 RMK A01 T01140105  RH  094%=      5-min Rain = 0
KTH1 060934Z 08003KT 11/11 A3018 RMK A01 T01130105  RH  094%=      5-min Rain = 0
KTH1 060935Z 08002KT 11/11 A3018 RMK A01 T01130105  RH  094%=      5-min Rain = 0
KTH1 060936Z 08002KT 11/11 A3018 RMK A01 T01140105  RH  094%=      5-min Rain = 0
KTH1 060937Z 07001KT 11/11 A3018 RMK A01 T01130105  RH  094%=      5-min Rain = 0
KTH1 060938Z 07002KT 11/11 A3018 RMK A01 T01130105  RH  094%=      5-min Rain = 0
KTH1 060939Z 08001KT 11/11 A3018 RMK A01 T01130105  RH  094%=      5-min Rain = 0
KTH1 060940Z 07002KT 11/11 A3018 RMK A01 T01140105  RH  094%=      5-min Rain = 0
KTH1 060941Z 08002KT 11/10 A3018 RMK A01 T01130104  RH  094%=      5-min Rain = 0
KTH1 060942Z 08002KT 11/10 A3018 RMK A01 T01130104  RH  094%=      5-min Rain = 0
KTH1 060943Z 08002KT 11/10 A3018 RMK A01 T01140104  RH  094%=      5-min Rain = 0
KTH1 060944Z 10002KT 11/10 A3018 RMK A01 T01130104  RH  094%=      5-min Rain = 0
KTH1 060945Z 07001KT 11/10 A3018 RMK A01 T01130104  RH  094%=      5-min Rain = 0
KTH1 060946Z 03001KT 11/10 A3018 RMK A01 T01140104  RH  094%=      5-min Rain = 0
KTH1 060947Z 03001KT 11/10 A3018 RMK A01 T01130104  RH  094%=      5-min Rain = 0
KTH1 060948Z 04001KT 11/10 A3018 RMK A01 T01130104  RH  094%=      5-min Rain = 0
KTH1 060949Z 06001KT 11/10 A3018 RMK A01 T01140104  RH  094%=      5-min Rain = 0
KTH1 060950Z 06001KT 11/10 A3018 RMK A01 T01130104  RH  094%=      5-min Rain = 0
KTH1 060951Z 08002KT 11/11 A3018 RMK A01 T01140105  RH  094%=      5-min Rain = 0
KTH1 060952Z 09002KT 11/11 A3018 RMK A01 T01140105  RH  094%=      5-min Rain = 0
KTH1 060953Z 09002KT 11/11 A3018 RMK A01 T01140105  RH  094%=      5-min Rain = 0
KTH1 060954Z 09002KT 11/11 A3018 RMK A01 T01140105  RH  094%=      5-min Rain = 0
KTH1 060955Z 09002KT 11/11 A3018 RMK A01 T01140105  RH  094%=      5-min Rain = 0
KTH1 060956Z 09002KT 11/11 A3018 RMK A01 T01140105  RH  094%=      5-min Rain = 0
KTH1 060957Z 10002KT 12/11 A3018 RMK A01 T01150105  RH  094%=      5-min Rain = 0
KTH1 060958Z 10002KT 11/10 A3018 RMK A01 T01140104  RH  094%=      5-min Rain = 0
KTH1 060959Z 10002KT 12/10 A3018 RMK A01 T01150104  RH  093%=      5-min Rain = 0
KTH1 061000Z 09002KT 11/10 A3018 RMK A01 T01140104  RH  093%=      5-min Rain = 0
KTH1 061001Z 08002KT 11/10 A3018 RMK A01 T01140104  RH  093%=      5-min Rain = 0
KTH1 061002Z 08002KT 11/10 A3018 RMK A01 T01140104  RH  093%=      5-min Rain = 0
KTH1 061003Z 06001KT 11/10 A3018 RMK A01 T01140104  RH  093%=      5-min Rain = 0
KTH1 061004Z 04001KT 11/10 A3018 RMK A01 T01140104  RH  093%=      5-min Rain = 0
KTH1 061005Z 04000KT 11/10 A3019 RMK A01 T01140104  RH  093%=      5-min Rain = 0
KTH1 061006Z 04001KT 11/10 A3019 RMK A01 T01140104  RH  093%=      5-min Rain = 0
KTH1 061007Z 04001KT 11/10 A3019 RMK A01 T01140104  RH  093%=      5-min Rain = 0
KTH1 061008Z 04001KT 11/10 A3019 RMK A01 T01140104  RH  093%=      5-min Rain = 0
KTH1 061009Z 03001KT 11/10 A3019 RMK A01 T01140104  RH  093%=      5-min Rain = 0
KTH1 061010Z 03001KT 11/10 A3018 RMK A01 T01140104  RH  093%=      5-min Rain = 0
KTH1 061011Z 02001KT 12/10 A3019 RMK A01 T01150104  RH  093%=      5-min Rain = 0
KTH1 061012Z 00000KT 12/11 A3019 RMK A01 T01150105  RH  093%=      5-min Rain = 0
KTH1 061013Z 00000KT 12/11 A3019 RMK A01 T01150105  RH  093%=      5-min Rain = 0
KTH1 061014Z 07000KT 12/11 A3018 RMK A01 T01150105  RH  093%=      5-min Rain = 0
KTH1 061015Z 07002KT 12/11 A3018 RMK A01 T01150105  RH  093%=      5-min Rain = 0
KTH1 061016Z 07002KT 12/11 A3018 RMK A01 T01150105  RH  093%=      5-min Rain = 0
KTH1 061017Z 07003KT 12/11 A3018 RMK A01 T01160105  RH  093%=      5-min Rain = 0
KTH1 061018Z 06003KT 12/11 A3018 RMK A01 T01160105  RH  093%=      5-min Rain = 0
KTH1 061019Z 07002KT 12/11 A3018 RMK A01 T01160105  RH  093%=      5-min Rain = 0
KTH1 061020Z 08002KT 12/11 A3018 RMK A01 T01160105  RH  093%=      5-min Rain = 0
KTH1 061021Z 06000KT 12/10 A3018 RMK A01 T01160104  RH  093%=      5-min Rain = 0
KTH1 061022Z 08001KT 12/10 A3018 RMK A01 T01160104  RH  093%=      5-min Rain = 0
KTH1 061023Z 07001KT 12/10 A3018 RMK A01 T01160104  RH  093%=      5-min Rain = 0
KTH1 061024Z 08001KT 12/10 A3018 RMK A01 T01160104  RH  093%=      5-min Rain = 0
KTH1 061025Z 08001KT 12/11 A3018 RMK A01 T01160105  RH  093%=      5-min Rain = 0
KTH1 061026Z 07001KT 12/10 A3018 RMK A01 T01160104  RH  093%=      5-min Rain = 0
KTH1 061027Z 07001KT 12/10 A3017 RMK A01 T01160104  RH  093%=      5-min Rain = 0
KTH1 061028Z 07002KT 12/10 A3017 RMK A01 T01160104  RH  093%=      5-min Rain = 0
KTH1 061029Z 07001KT 12/10 A3017 RMK A01 T01160104  RH  093%=      5-min Rain = 0
KTH1 061030Z 08002KT 12/10 A3017 RMK A01 T01160104  RH  093%=      5-min Rain = 0
KTH1 061031Z 08002KT 12/10 A3017 RMK A01 T01160104  RH  092%=      5-min Rain = 0
KTH1 061032Z 08002KT 12/10 A3017 RMK A01 T01160104  RH  092%=      5-min Rain = 0
KTH1 061033Z 08001KT 12/10 A3017 RMK A01 T01160104  RH  092%=      5-min Rain = 0
KTH1 061034Z 08001KT 12/10 A3017 RMK A01 T01160104  RH  092%=      5-min Rain = 0
KTH1 061035Z 08000KT 12/10 A3017 RMK A01 T01160104  RH  092%=      5-min Rain = 0
KTH1 061036Z 08001KT 12/10 A3018 RMK A01 T01160104  RH  092%=      5-min Rain = 0
KTH1 061037Z 08000KT 12/10 A3018 RMK A01 T01160104  RH  092%=      5-min Rain = 0
KTH1 061038Z 08000KT 12/10 A3018 RMK A01 T01160104  RH  092%=      5-min Rain = 0
KTH1 061039Z 08000KT 12/10 A3018 RMK A01 T01160104  RH  092%=      5-min Rain = 0
KTH1 061040Z 00000KT 12/10 A3018 RMK A01 T01160104  RH  092%=      5-min Rain = 0
KTH1 061041Z 00000KT 12/10 A3018 RMK A01 T01160104  RH  092%=      5-min Rain = 0
KTH1 061042Z 00000KT 12/11 A3018 RMK A01 T01160105  RH  093%=      5-min Rain = 0
KTH1 061043Z 00000KT 12/11 A3018 RMK A01 T01160105  RH  093%=      5-min Rain = 0
KTH1 061044Z 00000KT 12/11 A3018 RMK A01 T01170105  RH  093%=      5-min Rain = 0
KTH1 061045Z 00000KT 12/11 A3018 RMK A01 T01170105  RH  093%=      5-min Rain = 0
KTH1 061046Z 08000KT 12/11 A3018 RMK A01 T01170105  RH  093%=      5-min Rain = 0
KTH1 061047Z 13001KT 12/11 A3018 RMK A01 T01170106  RH  093%=      5-min Rain = 0
KTH1 061048Z 12002KT 12/11 A3018 RMK A01 T01170107  RH  094%=      5-min Rain = 0
KTH1 061049Z 14001KT 12/11 A3018 RMK A01 T01170108  RH  094%=      5-min Rain = 0
KTH1 061050Z 14001KT 12/11 A3018 RMK A01 T01170108  RH  094%=      5-min Rain = 0
KTH1 061051Z 14001KT 12/11 A3018 RMK A01 T01170107  RH  093%=      5-min Rain = 0
KTH1 061052Z 11001KT 12/11 A3018 RMK A01 T01170107  RH  093%=      5-min Rain = 0
KTH1 061053Z 11001KT 12/11 A3018 RMK A01 T01170106  RH  093%=      5-min Rain = 0
KTH1 061054Z 11001KT 12/11 A3018 RMK A01 T01170106  RH  093%=      5-min Rain = 0
KTH1 061055Z 06001KT 12/11 A3018 RMK A01 T01170106  RH  093%=      5-min Rain = 0
KTH1 061056Z 07002KT 12/11 A3018 RMK A01 T01170106  RH  093%=      5-min Rain = 0
KTH1 061057Z 07002KT 12/11 A3018 RMK A01 T01170106  RH  093%=      5-min Rain = 0
KTH1 061058Z 08001KT 12/11 A3018 RMK A01 T01170107  RH  094%=      5-min Rain = 0
KTH1 061059Z 08001KT 12/11 A3018 RMK A01 T01170107  RH  094%=      5-min Rain = 0
KTH1 061100Z 09001KT 12/11 A3018 RMK A01 T01170107  RH  094%=      5-min Rain = 0
KTH1 061101Z 09002KT 12/11 A3018 RMK A01 T01170107  RH  094%=      5-min Rain = 0
KTH1 061102Z 08002KT 12/11 A3018 RMK A01 T01170108  RH  094%=      5-min Rain = 0
KTH1 061103Z 09001KT 12/11 A3018 RMK A01 T01170108  RH  094%=      5-min Rain = 0
KTH1 061104Z 08002KT 12/11 A3018 RMK A01 T01170109  RH  095%=      5-min Rain = 0
KTH1 061105Z 08002KT 12/11 A3018 RMK A01 T01170109  RH  095%=      5-min Rain = 0
KTH1 061106Z 08002KT 12/11 A3018 RMK A01 T01170109  RH  095%=      5-min Rain = 0
KTH1 061107Z 09001KT 12/11 A3018 RMK A01 T01170109  RH  095%=      5-min Rain = 0
KTH1 061108Z 10001KT 12/11 A3018 RMK A01 T01170109  RH  095%=      5-min Rain = 0
KTH1 061109Z 13001KT 12/11 A3018 RMK A01 T01170110  RH  095%=      5-min Rain = 0
KTH1 061110Z 12001KT 12/11 A3018 RMK A01 T01170110  RH  095%=      5-min Rain = 0
KTH1 061111Z 11001KT 12/11 A3018 RMK A01 T01170110  RH  095%=      5-min Rain = 0
KTH1 061112Z 09001KT 12/11 A3018 RMK A01 T01170110  RH  095%=      5-min Rain = 0
KTH1 061113Z 11001KT 12/11 A3018 RMK A01 T01170110  RH  095%=      5-min Rain = 0
KTH1 061114Z 08002KT 12/11 A3018 RMK A01 T01170110  RH  095%=      5-min Rain = 0
KTH1 061115Z 08002KT 12/11 A3018 RMK A01 T01170110  RH  096%=      5-min Rain = 0
KTH1 061116Z 08001KT 12/11 A3018 RMK A01 T01170111  RH  096%=      5-min Rain = 0
KTH1 061117Z 09001KT 12/11 A3018 RMK A01 T01170111  RH  096%=      5-min Rain = 0
KTH1 061118Z 08002KT 12/11 A3018 RMK A01 T01170112  RH  096%=      5-min Rain = 0
KTH1 061119Z 08002KT 12/11 A3018 RMK A01 T01170111  RH  097%=      5-min Rain = 0
KTH1 061120Z 10002KT 12/11 A3018 RMK A01 T01170112  RH  097%=      5-min Rain = 0
KTH1 061121Z 11001KT 12/11 A3018 RMK A01 T01160112  RH  097%=      5-min Rain = 0
KTH1 061122Z 13002KT 12/11 A3018 RMK A01 T01160112  RH  097%=      5-min Rain = 0
KTH1 061123Z 15002KT 12/11 A3018 RMK A01 T01160112  RH  097%=      5-min Rain = 0
KTH1 061124Z 15003KT 12/11 A3018 RMK A01 T01160112  RH  097%=      5-min Rain = 0
KTH1 061125Z 13003KT 12/11 A3018 RMK A01 T01160112  RH  097%=      5-min Rain = 0
KTH1 061126Z 13002KT 12/11 A3018 RMK A01 T01160113  RH  097%=      5-min Rain = 0
KTH1 061127Z 19002KT 12/11 A3018 RMK A01 T01160113  RH  098%=      5-min Rain = 0
KTH1 061128Z 18002KT 12/11 A3018 RMK A01 T01160113  RH  098%=      5-min Rain = 0
KTH1 061129Z 18001KT 12/11 A3018 RMK A01 T01160113  RH  098%=      5-min Rain = 0
KTH1 061130Z 16001KT 12/11 A3018 RMK A01 T01160113  RH  098%=      5-min Rain = 0
KTH1 061131Z 13002KT 12/11 A3018 RMK A01 T01160113  RH  098%=      5-min Rain = 0
KTH1 061132Z 12002KT 12/11 A3018 RMK A01 T01160113  RH  098%=      5-min Rain = 0
KTH1 061133Z 13003KT 12/11 A3018 RMK A01 T01160113  RH  098%=      5-min Rain = 0
KTH1 061134Z 12002KT 12/11 A3017 RMK A01 T01160113  RH  098%=      5-min Rain = 0
KTH1 061135Z 12002KT 12/11 A3017 RMK A01 T01160113  RH  099%=      5-min Rain = 0
KTH1 061136Z 12003KT 12/11 A3018 RMK A01 T01160113  RH  099%=      5-min Rain = 0
KTH1 061137Z 12003KT 12/11 A3018 RMK A01 T01160114  RH  099%=      5-min Rain = 0
KTH1 061138Z 11004KT 12/11 A3017 RMK A01 T01160114  RH  099%=      5-min Rain = 0
KTH1 061139Z 12004KT 12/11 A3017 RMK A01 T01160114  RH  099%=      5-min Rain = 0
KTH1 061140Z 12005KT 12/11 A3017 RMK A01 T01160114  RH  099%=      5-min Rain = 0
KTH1 061141Z 12004KT 12/11 A3017 RMK A01 T01160114  RH  099%=      5-min Rain = 0
KTH1 061142Z 11005KT 12/12 A3017 RMK A01 T01160115  RH  099%=      5-min Rain = 0
KTH1 061143Z 11006KT 12/12 A3017 RMK A01 T01160115  RH  099%=      5-min Rain = 0
KTH1 061144Z 11006KT 12/12 A3017 RMK A01 T01160115  RH  099%=      5-min Rain = 0
KTH1 061145Z 11005KT 12/12 A3017 RMK A01 T01160115  RH  099%=      5-min Rain = 0
KTH1 061146Z 11004KT 12/12 A3017 RMK A01 T01160116  RH  099%=      5-min Rain = 0
KTH1 061147Z 11005KT 12/12 A3017 RMK A01 T01160116  RH  099%=      5-min Rain = 0
KTH1 061148Z 11004KT 12/12 A3017 RMK A01 T01170116  RH  100%=      5-min Rain = 0
KTH1 061149Z 11003KT 12/12 A3017 RMK A01 T01170116  RH  100%=      5-min Rain = 0
KTH1 061150Z 10004KT 12/12 A3017 RMK A01 T01170116  RH  100%=      5-min Rain = 0
KTH1 061151Z 10003KT 12/12 A3017 RMK A01 T01160116  RH  100%=      5-min Rain = 0
KTH1 061152Z 10004KT 12/12 A3017 RMK A01 T01170116  RH  100%=      5-min Rain = 0
KTH1 061153Z 10003KT 12/12 A3017 RMK A01 T01170117  RH  100%=      5-min Rain = 0
KTH1 061154Z 10003KT 12/12 A3017 RMK A01 T01170117  RH  100%=      5-min Rain = 0
KTH1 061155Z 10003KT 12/12 A3017 RMK A01 T01170117  RH  100%=      5-min Rain = 0
KTH1 061156Z 09002KT 12/12 A3018 RMK A01 T01170117  RH  100%=      5-min Rain = 0
KTH1 061157Z 09003KT 12/12 A3018 RMK A01 T01170117  RH  100%=      5-min Rain = 0
KTH1 061158Z 07002KT 12/12 A3018 RMK A01 T01170117  RH  100%=      5-min Rain = 0
KTH1 061159Z 07002KT 12/12 A3018 RMK A01 T01170117  RH  100%=      5-min Rain = 0
KTH1 061200Z 07002KT 12/12 A3018 RMK A01 T01170117  RH  100%=      5-min Rain = 0
KTH1 061201Z 07002KT 12/12 A3018 RMK A01 T01170117  RH  100%=      5-min Rain = 0
KTH1 061202Z 07002KT 12/12 A3018 RMK A01 T01170117  RH  100%=      5-min Rain = 0
KTH1 061203Z 09002KT 12/12 A3018 RMK A01 T01170117  RH  100%=      5-min Rain = 0
KTH1 061204Z 09003KT 12/12 A3018 RMK A01 T01170117  RH  100%=      5-min Rain = 0
KTH1 061205Z 10003KT 12/12 A3018 RMK A01 T01170117  RH  100%=      5-min Rain = 0
KTH1 061206Z 09002KT 12/12 A3017 RMK A01 T01170117  RH  100%=      5-min Rain = 0
KTH1 061207Z 09003KT 12/12 A3017 RMK A01 T01170117  RH  100%=      5-min Rain = 0
KTH1 061208Z 08003KT 12/12 A3017 RMK A01 T01180118  RH  100%=      5-min Rain = 0
KTH1 061209Z 08002KT 12/12 A3018 RMK A01 T01180117  RH  100%=      5-min Rain = 0
KTH1 061210Z 07002KT 12/12 A3018 RMK A01 T01180117  RH  100%=      5-min Rain = 0
KTH1 061211Z 06001KT 12/12 A3018 RMK A01 T01180118  RH  100%=      5-min Rain = 0
KTH1 061212Z 03001KT 12/12 A3018 RMK A01 T01180118  RH  100%=      5-min Rain = 0
KTH1 061213Z 03002KT 12/12 A3018 RMK A01 T01180118  RH  100%=      5-min Rain = 0
KTH1 061214Z 02001KT 12/12 A3018 RMK A01 T01180118  RH  100%=      5-min Rain = 0
KTH1 061215Z 02001KT 12/12 A3019 RMK A01 T01180118  RH  100%=      5-min Rain = 0
KTH1 061216Z 01001KT 12/12 A3019 RMK A01 T01180118  RH  100%=      5-min Rain = 0
KTH1 061217Z 03001KT 12/12 A3019 RMK A01 T01180118  RH  100%=      5-min Rain = 0
KTH1 061218Z 03001KT 12/12 A3019 RMK A01 T01180118  RH  100%=      5-min Rain = 0
KTH1 061219Z 04001KT 12/12 A3019 RMK A01 T01170117  RH  100%=      5-min Rain = 0
KTH1 061220Z 04001KT 12/12 A3019 RMK A01 T01170117  RH  100%=      5-min Rain = 0
KTH1 061221Z 04000KT 12/12 A3019 RMK A01 T01170117  RH  100%=      5-min Rain = 0
KTH1 061222Z 04001KT 12/12 A3019 RMK A01 T01170117  RH  100%=      5-min Rain = 0
KTH1 061223Z 04001KT 12/12 A3019 RMK A01 T01170117  RH  100%=      5-min Rain = 0
KTH1 061224Z 04000KT 12/12 A3019 RMK A01 T01170117  RH  100%=      5-min Rain = 0
KTH1 061225Z 04001KT 12/12 A3019 RMK A01 T01170117  RH  100%=      5-min Rain = 0
KTH1 061226Z 07001KT 12/12 A3019 RMK A01 T01170117  RH  100%=      5-min Rain = 0
KTH1 061227Z 07001KT 12/12 A3019 RMK A01 T01170117  RH  100%=      5-min Rain = 0
KTH1 061228Z 05001KT 12/12 A3019 RMK A01 T01170117  RH  100%=      5-min Rain = 0
KTH1 061229Z 06001KT 12/12 A3019 RMK A01 T01170117  RH  100%=      5-min Rain = 0
KTH1 061230Z 07001KT 12/12 A3019 RMK A01 T01170117  RH  100%=      5-min Rain = 0
KTH1 061231Z 07002KT 12/12 A3019 RMK A01 T01170117  RH  100%=      5-min Rain = 0
KTH1 061232Z 07003KT 12/12 A3019 RMK A01 T01170117  RH  100%=      5-min Rain = 0
KTH1 061233Z 07003KT 12/12 A3019 RMK A01 T01180118  RH  100%=      5-min Rain = 0
KTH1 061234Z 08002KT 12/12 A3019 RMK A01 T01180118  RH  100%=      5-min Rain = 0
KTH1 061235Z 08002KT 12/12 A3019 RMK A01 T01180118  RH  100%=      5-min Rain = 0
KTH1 061236Z 08002KT 12/12 A3019 RMK A01 T01180118  RH  100%=      5-min Rain = 0
KTH1 061237Z 07002KT 12/12 A3019 RMK A01 T01180118  RH  100%=      5-min Rain = 0
KTH1 061238Z 08002KT 12/12 A3019 RMK A01 T01180118  RH  100%=      5-min Rain = 0
KTH1 061239Z 09002KT 12/12 A3019 RMK A01 T01180118  RH  100%=      5-min Rain = 0
KTH1 061240Z 09002KT 12/12 A3019 RMK A01 T01180118  RH  100%=      5-min Rain = 0
KTH1 061241Z 08002KT 12/12 A3019 RMK A01 T01180118  RH  100%=      5-min Rain = 0
KTH1 061242Z 08002KT 12/12 A3019 RMK A01 T01180118  RH  100%=      5-min Rain = 0
KTH1 061243Z 08002KT 12/12 A3019 RMK A01 T01180118  RH  100%=      5-min Rain = 0
KTH1 061244Z 07002KT 12/12 A3019 RMK A01 T01180118  RH  100%=      5-min Rain = 0
KTH1 061245Z 08002KT 12/12 A3019 RMK A01 T01180118  RH  100%=      5-min Rain = 0
KTH1 061246Z 07002KT 12/12 A3019 RMK A01 T01180118  RH  100%=      5-min Rain = 0
KTH1 061247Z 08002KT 12/12 A3019 RMK A01 T01180118  RH  100%=      5-min Rain = 0
KTH1 061248Z 08002KT 12/12 A3019 RMK A01 T01180118  RH  100%=      5-min Rain = 0
KTH1 061249Z 08001KT 12/12 A3019 RMK A01 T01180118  RH  100%=      5-min Rain = 0
KTH1 061250Z 12000KT 12/12 A3019 RMK A01 T01180118  RH  100%=      5-min Rain = 0
KTH1 061251Z 11001KT 12/12 A3019 RMK A01 T01180118  RH  100%=      5-min Rain = 0
KTH1 061252Z 09001KT 12/12 A3019 RMK A01 T01190119  RH  100%=      5-min Rain = 0
KTH1 061253Z 08001KT 12/12 A3019 RMK A01 T01180119  RH  100%=      5-min Rain = 0
KTH1 061254Z 06000KT 12/12 A3019 RMK A01 T01190119  RH  100%=      5-min Rain = 0
KTH1 061255Z 06001KT 12/12 A3019 RMK A01 T01180119  RH  100%=      5-min Rain = 0
KTH1 061256Z 06001KT 12/12 A3019 RMK A01 T01180118  RH  100%=      5-min Rain = 0
KTH1 061257Z 05001KT 12/12 A3019 RMK A01 T01190119  RH  100%=      5-min Rain = 0
KTH1 061258Z 05001KT 12/12 A3019 RMK A01 T01190119  RH  100%=      5-min Rain = 0
KTH1 061259Z 05001KT 12/12 A3019 RMK A01 T01190119  RH  100%=      5-min Rain = 0
KTH1 061300Z 00000KT 12/12 A3019 RMK A01 T01190119  RH  100%=      5-min Rain = 0
KTH1 061301Z 00000KT 12/12 A302 RMK A01 T01190119  RH  100%=      5-min Rain = 0
KTH1 061302Z 00000KT 12/12 A302 RMK A01 T01190119  RH  100%=      5-min Rain = 0
KTH1 061303Z 00000KT 12/12 A302 RMK A01 T01190119  RH  100%=      5-min Rain = 0
KTH1 061304Z 00000KT 12/12 A302 RMK A01 T01190119  RH  100%=      5-min Rain = 0
KTH1 061305Z 00000KT 12/12 A302 RMK A01 T01200120  RH  100%=      5-min Rain = 0
KTH1 061306Z 00000KT 12/12 A302 RMK A01 T01190119  RH  100%=      5-min Rain = 0
KTH1 061307Z 09001KT 12/12 A302 RMK A01 T01200120  RH  100%=      5-min Rain = 0
KTH1 061308Z 11002KT 12/12 A3019 RMK A01 T01200120  RH  100%=      5-min Rain = 0
KTH1 061309Z 11002KT 12/12 A3019 RMK A01 T01200120  RH  100%=      5-min Rain = 0
KTH1 061310Z 11002KT 12/12 A3019 RMK A01 T01200120  RH  100%=      5-min Rain = 0
KTH1 061311Z 10002KT 12/12 A3019 RMK A01 T01200120  RH  100%=      5-min Rain = 0
KTH1 061312Z 10002KT 12/12 A3019 RMK A01 T01210121  RH  100%=      5-min Rain = 0
KTH1 061313Z 11001KT 12/12 A302 RMK A01 T01210121  RH  100%=      5-min Rain = 0
KTH1 061314Z 10001KT 12/12 A302 RMK A01 T01210121  RH  100%=      5-min Rain = 0
KTH1 061315Z 10001KT 12/12 A302 RMK A01 T01210121  RH  100%=      5-min Rain = 0
KTH1 061316Z 10001KT 12/12 A302 RMK A01 T01210121  RH  100%=      5-min Rain = 0
KTH1 061317Z 10001KT 12/12 A302 RMK A01 T01210121  RH  100%=      5-min Rain = 0
KTH1 061318Z 09002KT 12/12 A302 RMK A01 T01210121  RH  100%=      5-min Rain = 0
KTH1 061319Z 10002KT 12/12 A302 RMK A01 T01210121  RH  100%=      5-min Rain = 0
KTH1 061320Z 10002KT 12/12 A302 RMK A01 T01210121  RH  100%=      5-min Rain = 0
KTH1 061321Z 09002KT 12/12 A302 RMK A01 T01210121  RH  100%=      5-min Rain = 0
KTH1 061322Z 10001KT 12/12 A302 RMK A01 T01210121  RH  100%=      5-min Rain = 0
KTH1 061323Z 10002KT 12/12 A302 RMK A01 T01210121  RH  100%=      5-min Rain = 0
KTH1 061324Z 10001KT 12/12 A302 RMK A01 T01210121  RH  100%=      5-min Rain = 0
KTH1 061325Z 10001KT 12/12 A302 RMK A01 T01210121  RH  100%=      5-min Rain = 0
KTH1 061326Z 10000KT 12/12 A302 RMK A01 T01210121  RH  100%=      5-min Rain = 0
KTH1 061327Z 00000KT 12/12 A302 RMK A01 T01210121  RH  100%=      5-min Rain = 0
KTH1 061328Z 10000KT 12/12 A302 RMK A01 T01210121  RH  100%=      5-min Rain = 0
KTH1 061329Z 10001KT 12/12 A302 RMK A01 T01220122  RH  100%=      5-min Rain = 0
KTH1 061330Z 10000KT 12/12 A302 RMK A01 T01220122  RH  100%=      5-min Rain = 0
KTH1 061331Z 00000KT 12/12 A302 RMK A01 T01220122  RH  100%=      5-min Rain = 0
KTH1 061332Z 10000KT 12/12 A302 RMK A01 T01220122  RH  100%=      5-min Rain = 0
KTH1 061333Z 10001KT 12/12 A302 RMK A01 T01220122  RH  100%=      5-min Rain = 0
KTH1 061334Z 10001KT 12/12 A302 RMK A01 T01220122  RH  100%=      5-min Rain = 0
KTH1 061335Z 12001KT 12/12 A3021 RMK A01 T01230123  RH  100%=      5-min Rain = 0
KTH1 061336Z 12001KT 12/12 A3021 RMK A01 T01230123  RH  100%=      5-min Rain = 0
KTH1 061337Z 13001KT 12/12 A3021 RMK A01 T01230123  RH  100%=      5-min Rain = 0
KTH1 061338Z 13002KT 12/12 A3021 RMK A01 T01230123  RH  100%=      5-min Rain = 0
KTH1 061339Z 13001KT 12/12 A3021 RMK A01 T01230123  RH  100%=      5-min Rain = 0
KTH1 061340Z 12001KT 12/12 A3021 RMK A01 T01240124  RH  100%=      5-min Rain = 0
KTH1 061341Z 13001KT 12/12 A3021 RMK A01 T01240124  RH  100%=      5-min Rain = 0
KTH1 061342Z 13002KT 12/12 A3021 RMK A01 T01240124  RH  100%=      5-min Rain = 0
KTH1 061343Z 14001KT 12/12 A3021 RMK A01 T01240124  RH  100%=      5-min Rain = 0
KTH1 061344Z 14001KT 12/12 A3021 RMK A01 T01240124  RH  100%=      5-min Rain = 0
KTH1 061345Z 16001KT 12/12 A3021 RMK A01 T01240124  RH  100%=      5-min Rain = 0
KTH1 061346Z 16000KT 12/12 A3021 RMK A01 T01240124  RH  100%=      5-min Rain = 0
KTH1 061347Z 15002KT 12/12 A3021 RMK A01 T01240124  RH  100%=      5-min Rain = 0
KTH1 061348Z 15001KT 12/12 A3021 RMK A01 T01240124  RH  100%=      5-min Rain = 0
KTH1 061349Z 14001KT 12/12 A3021 RMK A01 T01240124  RH  100%=      5-min Rain = 0
KTH1 061350Z 14002KT 13/13 A3021 RMK A01 T01250125  RH  100%=      5-min Rain = 0
KTH1 061351Z 14002KT 13/13 A3021 RMK A01 T01250125  RH  100%=      5-min Rain = 0
KTH1 061352Z 14002KT 13/13 A3021 RMK A01 T01250125  RH  100%=      5-min Rain = 0
KTH1 061353Z 13003KT 13/13 A3021 RMK A01 T01260126  RH  100%=      5-min Rain = 0
KTH1 061354Z 13003KT 13/13 A3021 RMK A01 T01260126  RH  100%=      5-min Rain = 0
KTH1 061355Z 13003KT 13/13 A3021 RMK A01 T01260126  RH  100%=      5-min Rain = 0
KTH1 061356Z 14003KT 13/13 A3021 RMK A01 T01260126  RH  100%=      5-min Rain = 0
KTH1 061357Z 14003KT 13/13 A3021 RMK A01 T01260126  RH  100%=      5-min Rain = 0
KTH1 061358Z 14003KT 13/13 A3021 RMK A01 T01270127  RH  100%=      5-min Rain = 0
KTH1 061359Z 14003KT 13/13 A3021 RMK A01 T01270127  RH  100%=      5-min Rain = 0
KTH1 061400Z 14003KT 13/13 A3021 RMK A01 T01270127  RH  100%=      5-min Rain = 0
KTH1 061401Z 15003KT 13/13 A3021 RMK A01 T01270127  RH  100%=      5-min Rain = 0
KTH1 061402Z 15004KT 13/13 A3021 RMK A01 T01280128  RH  100%=      5-min Rain = 0
KTH1 061403Z 14003KT 13/13 A3021 RMK A01 T01280128  RH  100%=      5-min Rain = 0
KTH1 061404Z 15004KT 13/13 A3021 RMK A01 T01280128  RH  100%=      5-min Rain = 0
KTH1 061405Z 14005KT 13/13 A3021 RMK A01 T01280128  RH  100%=      5-min Rain = 0
KTH1 061406Z 14005KT 13/13 A3021 RMK A01 T01290129  RH  100%=      5-min Rain = 0
KTH1 061407Z 14006KT 13/13 A302 RMK A01 T01290129  RH  100%=      5-min Rain = 0
KTH1 061408Z 14006KT 13/13 A302 RMK A01 T01290129  RH  100%=      5-min Rain = 0
KTH1 061409Z 15007KT 13/13 A302 RMK A01 T01300130  RH  100%=      5-min Rain = 0
KTH1 061410Z 14007KT 13/13 A302 RMK A01 T01290129  RH  100%=      5-min Rain = 0
KTH1 061411Z 14007KT 13/13 A302 RMK A01 T01290129  RH  100%=      5-min Rain = 0
KTH1 061412Z 15006KT 13/13 A302 RMK A01 T01300130  RH  100%=      5-min Rain = 0
KTH1 061413Z 15007KT 13/13 A302 RMK A01 T01300130  RH  100%=      5-min Rain = 0
KTH1 061414Z 15006KT 13/13 A302 RMK A01 T01300130  RH  100%=      5-min Rain = 0
KTH1 061415Z 15008KT 13/13 A302 RMK A01 T01310131  RH  100%=      5-min Rain = 0
KTH1 061416Z 15008KT 13/13 A302 RMK A01 T01310131  RH  100%=      5-min Rain = 0
KTH1 061417Z 14008KT 13/13 A302 RMK A01 T01300131  RH  100%=      5-min Rain = 0
KTH1 061418Z 15008KT 13/13 A302 RMK A01 T01310131  RH  100%=      5-min Rain = 0
KTH1 061419Z 15008KT 13/13 A302 RMK A01 T01310131  RH  100%=      5-min Rain = 0
KTH1 061420Z 15007KT 13/13 A302 RMK A01 T01310131  RH  100%=      5-min Rain = 0
KTH1 061421Z 15006KT 13/13 A302 RMK A01 T01310131  RH  100%=      5-min Rain = 0
KTH1 061422Z 15007KT 13/13 A302 RMK A01 T01310131  RH  100%=      5-min Rain = 0
KTH1 061423Z 15007KT 13/13 A302 RMK A01 T01320132  RH  100%=      5-min Rain = 0
KTH1 061424Z 15006KT 13/13 A302 RMK A01 T01320132  RH  100%=      5-min Rain = 0
KTH1 061425Z 15006KT 13/13 A302 RMK A01 T01320132  RH  100%=      5-min Rain = 0
KTH1 061426Z 15008KT 13/13 A302 RMK A01 T01330133  RH  100%=      5-min Rain = 0
KTH1 061427Z 15007KT 13/13 A302 RMK A01 T01330133  RH  100%=      5-min Rain = 0
KTH1 061428Z 15006KT 13/13 A302 RMK A01 T01330133  RH  100%=      5-min Rain = 0
KTH1 061429Z 15007KT 13/13 A302 RMK A01 T01340134  RH  100%=      5-min Rain = 0
KTH1 061430Z 15007KT 14/14 A302 RMK A01 T01350135  RH  100%=      5-min Rain = 0
KTH1 061431Z 14005KT 14/14 A302 RMK A01 T01350135  RH  100%=      5-min Rain = 0
KTH1 061432Z 15005KT 14/14 A302 RMK A01 T01360136  RH  100%=      5-min Rain = 0
KTH1 061433Z 15005KT 14/14 A302 RMK A01 T01360136  RH  100%=      5-min Rain = 0
KTH1 061434Z 15007KT 14/14 A302 RMK A01 T01370136  RH  100%=      5-min Rain = 0
KTH1 061435Z 15006KT 14/14 A302 RMK A01 T01370137  RH  100%=      5-min Rain = 0
KTH1 061436Z 14005KT 14/14 A302 RMK A01 T01370136  RH  100%=      5-min Rain = 0
KTH1 061437Z 15005KT 14/14 A302 RMK A01 T01370137  RH  100%=      5-min Rain = 0
KTH1 061438Z 14007KT 14/14 A302 RMK A01 T01380137  RH  100%=      5-min Rain = 0
KTH1 061439Z 14007KT 14/14 A302 RMK A01 T01380137  RH  099%=      5-min Rain = 0
KTH1 061440Z 14006KT 14/14 A302 RMK A01 T01390138  RH  099%=      5-min Rain = 0
KTH1 061441Z 14005KT 14/14 A302 RMK A01 T01390138  RH  099%=      5-min Rain = 0
KTH1 061442Z 15005KT 14/14 A302 RMK A01 T01400138  RH  099%=      5-min Rain = 0
KTH1 061443Z 14005KT 14/14 A302 RMK A01 T01410139  RH  099%=      5-min Rain = 0
KTH1 061444Z 15007KT 14/14 A302 RMK A01 T01410140  RH  099%=      5-min Rain = 0
KTH1 061445Z 14005KT 14/14 A302 RMK A01 T01420139  RH  099%=      5-min Rain = 0
KTH1 061446Z 15006KT 14/14 A302 RMK A01 T01420140  RH  098%=      5-min Rain = 0
KTH1 061447Z 15008KT 14/14 A302 RMK A01 T01420140  RH  098%=      5-min Rain = 0
KTH1 061448Z 15007KT 14/14 A302 RMK A01 T01430140  RH  098%=      5-min Rain = 0
KTH1 061449Z 14007KT 14/14 A302 RMK A01 T01430140  RH  098%=      5-min Rain = 0
KTH1 061450Z 15006KT 14/14 A302 RMK A01 T01430140  RH  098%=      5-min Rain = 0
KTH1 061451Z 15006KT 14/14 A302 RMK A01 T01440140  RH  098%=      5-min Rain = 0
KTH1 061452Z 14005KT 14/14 A302 RMK A01 T01440141  RH  098%=      5-min Rain = 0
KTH1 061453Z 15008KT 15/14 A302 RMK A01 T01450141  RH  097%=      5-min Rain = 0
KTH1 061454Z 14007KT 15/14 A3019 RMK A01 T01450141  RH  097%=      5-min Rain = 0
KTH1 061455Z 14006KT 15/14 A3019 RMK A01 T01460141  RH  097%=      5-min Rain = 0
KTH1 061456Z 14006KT 15/14 A3019 RMK A01 T01470142  RH  097%=      5-min Rain = 0
KTH1 061457Z 15007KT 15/14 A3019 RMK A01 T01470142  RH  097%=      5-min Rain = 0
KTH1 061458Z 14006KT 15/14 A3019 RMK A01 T01480143  RH  097%=      5-min Rain = 0
KTH1 061459Z 14006KT 15/14 A3019 RMK A01 T01480143  RH  096%=      5-min Rain = 0
KTH1 061500Z 14009KT 15/14 A3019 RMK A01 T01490144  RH  096%=      5-min Rain = 0
KTH1 061501Z 15007KT 15/14 A3019 RMK A01 T01500144  RH  096%=      5-min Rain = 0
KTH1 061502Z 14007KT 15/14 A3019 RMK A01 T01500144  RH  096%=      5-min Rain = 0
KTH1 061503Z 14008KT 15/15 A3019 RMK A01 T01510145  RH  096%=      5-min Rain = 0
KTH1 061504Z 14008KT 15/15 A3019 RMK A01 T01520145  RH  096%=      5-min Rain = 0
KTH1 061505Z 15009KT 15/15 A3019 RMK A01 T01530145  RH  095%=      5-min Rain = 0
KTH1 061506Z 14008KT 15/15 A3019 RMK A01 T01530145  RH  095%=      5-min Rain = 0
KTH1 061507Z 14007KT 15/15 A3019 RMK A01 T01540145  RH  095%=      5-min Rain = 0
KTH1 061508Z 14007KT 15/15 A3019 RMK A01 T01540146  RH  095%=      5-min Rain = 0
KTH1 061509Z 14008KT 16/15 A3019 RMK A01 T01550147  RH  095%=      5-min Rain = 0
KTH1 061510Z 14008KT 16/15 A3019 RMK A01 T01560147  RH  094%=      5-min Rain = 0
KTH1 061511Z 14008KT 16/15 A3019 RMK A01 T01570147  RH  094%=      5-min Rain = 0
KTH1 061512Z 15009KT 16/15 A3018 RMK A01 T01580147  RH  094%=      5-min Rain = 0
KTH1 061513Z 14012KT 16/15 A3018 RMK A01 T01580148  RH  093%=      5-min Rain = 0
KTH1 061514Z 14011KT 16/15 A3018 RMK A01 T01580147  RH  093%=      5-min Rain = 0
KTH1 061515Z 14010KT 16/15 A3018 RMK A01 T01590147  RH  093%=      5-min Rain = 0
KTH1 061516Z 14011KT 16/15 A3018 RMK A01 T01590148  RH  093%=      5-min Rain = 0
KTH1 061517Z 14010KT 16/15 A3018 RMK A01 T01590148  RH  093%=      5-min Rain = 0
KTH1 061518Z 14010KT 16/15 A3018 RMK A01 T01600148  RH  093%=      5-min Rain = 0
KTH1 061519Z 14011KT 16/15 A3017 RMK A01 T01610149  RH  093%=      5-min Rain = 0
KTH1 061520Z 14009KT 16/15 A3017 RMK A01 T01610149  RH  092%=      5-min Rain = 0
KTH1 061521Z 14009KT 16/15 A3017 RMK A01 T01610149  RH  092%=      5-min Rain = 0
KTH1 061522Z 14008G13KT 16/15 A3017 RMK A01 T01630150  RH  092%=      5-min Rain = 0
KTH1 061523Z 15009KT 16/15 A3017 RMK A01 T01640150  RH  092%=      5-min Rain = 0
KTH1 061524Z 15009KT 17/15 A3017 RMK A01 T01650151  RH  091%=      5-min Rain = 0
KTH1 061525Z 15012KT 17/15 A3017 RMK A01 T01670152  RH  091%=      5-min Rain = 0
KTH1 061526Z 15006KT 17/15 A3017 RMK A01 T01680153  RH  090%=      5-min Rain = 0
KTH1 061527Z 15008G13KT 17/16 A3017 RMK A01 T01720156  RH  090%=      5-min Rain = 0
KTH1 061528Z 15011KT 17/15 A3017 RMK A01 T01740154  RH  088%=      5-min Rain = 0
KTH1 061529Z 15013KT 18/15 A3017 RMK A01 T01750154  RH  088%=      5-min Rain = 0
KTH1 061530Z 15011KT 18/15 A3017 RMK A01 T01750153  RH  087%=      5-min Rain = 0
KTH1 061531Z 15009KT 17/15 A3017 RMK A01 T01740152  RH  087%=      5-min Rain = 0
KTH1 061532Z 15008KT 17/15 A3017 RMK A01 T01730153  RH  088%=      5-min Rain = 0
KTH1 061533Z 15010G16KT 17/15 A3017 RMK A01 T01730153  RH  088%=      5-min Rain = 0
KTH1 061534Z 15012G17KT 17/15 A3017 RMK A01 T01730153  RH  088%=      5-min Rain = 0
KTH1 061535Z 15013KT 17/15 A3017 RMK A01 T01730154  RH  088%=      5-min Rain = 0
KTH1 061536Z 15012KT 17/15 A3017 RMK A01 T01740154  RH  088%=      5-min Rain = 0
KTH1 061537Z 15011KT 18/16 A3017 RMK A01 T01760156  RH  088%=      5-min Rain = 0
KTH1 061538Z 15009KT 18/16 A3017 RMK A01 T01780156  RH  087%=      5-min Rain = 0
KTH1 061539Z 15009KT 18/16 A3017 RMK A01 T01800158  RH  087%=      5-min Rain = 0
KTH1 061540Z 16011KT 18/16 A3017 RMK A01 T01830158  RH  086%=      5-min Rain = 0
KTH1 061541Z 15009KT 18/16 A3017 RMK A01 T01840157  RH  085%=      5-min Rain = 0
KTH1 061542Z 15011KT 19/16 A3017 RMK A01 T01850158  RH  084%=      5-min Rain = 0
KTH1 061543Z 16011KT 19/16 A3017 RMK A01 T01850157  RH  084%=      5-min Rain = 0
KTH1 061544Z 16010KT 18/16 A3018 RMK A01 T01840156  RH  084%=      5-min Rain = 0
KTH1 061545Z 16010KT 18/16 A3018 RMK A01 T01830156  RH  084%=      5-min Rain = 0
KTH1 061546Z 15008KT 18/16 A3018 RMK A01 T01820156  RH  085%=      5-min Rain = 0
KTH1 061547Z 16008KT 18/16 A3018 RMK A01 T01810156  RH  085%=      5-min Rain = 0
KTH1 061548Z 16009KT 18/16 A3018 RMK A01 T01820157  RH  085%=      5-min Rain = 0
KTH1 061549Z 16008KT 18/16 A3018 RMK A01 T01830158  RH  085%=      5-min Rain = 0
KTH1 061550Z 15004KT 18/16 A3018 RMK A01 T01840158  RH  085%=      5-min Rain = 0
KTH1 061551Z 16006KT 19/16 A3018 RMK A01 T01860160  RH  085%=      5-min Rain = 0
KTH1 061552Z 17007KT 19/16 A3018 RMK A01 T01880160  RH  084%=      5-min Rain = 0
KTH1 061553Z 17008KT 19/16 A3018 RMK A01 T01880160  RH  083%=      5-min Rain = 0
KTH1 061554Z 16007KT 19/16 A3018 RMK A01 T01890160  RH  083%=      5-min Rain = 0
KTH1 061555Z 18008KT 19/16 A3018 RMK A01 T01880160  RH  084%=      5-min Rain = 0
KTH1 061556Z 20005KT 19/16 A3019 RMK A01 T01880160  RH  084%=      5-min Rain = 0
KTH1 061557Z 17007KT 19/16 A3019 RMK A01 T01880160  RH  084%=      5-min Rain = 0
KTH1 061558Z 19005KT 19/16 A3019 RMK A01 T01890160  RH  084%=      5-min Rain = 0
KTH1 061559Z 17006KT 19/16 A3019 RMK A01 T01880160  RH  084%=      5-min Rain = 0
KTH1 061600Z 19005KT 19/16 A3019 RMK A01 T01880160  RH  084%=      5-min Rain = 0
KTH1 061601Z 18004KT 19/16 A3019 RMK A01 T01880160  RH  084%=      5-min Rain = 0
KTH1 061602Z 20005KT 19/16 A3019 RMK A01 T01880160  RH  083%=      5-min Rain = 0
KTH1 061603Z 17006KT 19/16 A3019 RMK A01 T01880160  RH  084%=      5-min Rain = 0
KTH1 061604Z 19005KT 19/16 A3018 RMK A01 T01880160  RH  084%=      5-min Rain = 0
KTH1 061605Z 18007KT 19/16 A3018 RMK A01 T01880160  RH  084%=      5-min Rain = 0
KTH1 061606Z 18006KT 19/16 A3018 RMK A01 T01870160  RH  084%=      5-min Rain = 0
KTH1 061607Z 18004KT 19/16 A3018 RMK A01 T01870160  RH  084%=      5-min Rain = 0
KTH1 061608Z 18007KT 19/16 A3018 RMK A01 T01870160  RH  084%=      5-min Rain = 0
KTH1 061609Z 17005KT 19/16 A3018 RMK A01 T01870160  RH  084%=      5-min Rain = 0
KTH1 061610Z 17003KT 19/16 A3018 RMK A01 T01870161  RH  085%=      5-min Rain = 0
KTH1 061611Z 16004KT 19/16 A3018 RMK A01 T01870161  RH  085%=      5-min Rain = 0
KTH1 061612Z 17005KT 19/16 A3018 RMK A01 T01870161  RH  084%=      5-min Rain = 0
KTH1 061613Z 17006KT 19/16 A3018 RMK A01 T01880160  RH  084%=      5-min Rain = 0
KTH1 061614Z 19004KT 19/16 A3018 RMK A01 T01880160  RH  084%=      5-min Rain = 0
KTH1 061615Z 19002KT 19/16 A3018 RMK A01 T01880161  RH  084%=      5-min Rain = 0
KTH1 061616Z 21004KT 19/16 A3018 RMK A01 T01880161  RH  084%=      5-min Rain = 0
KTH1 061617Z 19005KT 19/16 A3018 RMK A01 T01890161  RH  084%=      5-min Rain = 0
KTH1 061618Z 18005KT 19/16 A3018 RMK A01 T01890161  RH  084%=      5-min Rain = 0
KTH1 061619Z 17004KT 19/16 A3018 RMK A01 T01890161  RH  084%=      5-min Rain = 0
KTH1 061620Z 17005KT 19/16 A3018 RMK A01 T01890161  RH  084%=      5-min Rain = 0
KTH1 061621Z 18004KT 19/16 A3018 RMK A01 T01890161  RH  084%=      5-min Rain = 0
KTH1 061622Z 18005KT 19/16 A3018 RMK A01 T01890161  RH  084%=      5-min Rain = 0
KTH1 061623Z 17004KT 19/16 A3018 RMK A01 T01890161  RH  084%=      5-min Rain = 0
KTH1 061624Z 18002KT 19/16 A3018 RMK A01 T01890161  RH  084%=      5-min Rain = 0
KTH1 061625Z 18003KT 19/16 A3018 RMK A01 T01890161  RH  084%=      5-min Rain = 0
KTH1 061626Z 18005KT 19/16 A3018 RMK A01 T01900161  RH  083%=      5-min Rain = 0
KTH1 061627Z 18005KT 19/16 A3018 RMK A01 T01910161  RH  083%=      5-min Rain = 0
KTH1 061628Z 17006KT 19/16 A3018 RMK A01 T01910161  RH  083%=      5-min Rain = 0
KTH1 061629Z 17007KT 19/16 A3018 RMK A01 T01910161  RH  083%=      5-min Rain = 0
KTH1 061630Z 17008KT 19/16 A3017 RMK A01 T01910161  RH  083%=      5-min Rain = 0
KTH1 061631Z 17008KT 19/16 A3017 RMK A01 T01920162  RH  083%=      5-min Rain = 0
KTH1 061632Z 17007KT 19/16 A3017 RMK A01 T01920162  RH  083%=      5-min Rain = 0
KTH1 061633Z 18008KT 19/16 A3017 RMK A01 T01940163  RH  082%=      5-min Rain = 0
KTH1 061634Z 18007KT 20/16 A3017 RMK A01 T01950162  RH  081%=      5-min Rain = 0
KTH1 061635Z 19006KT 20/16 A3017 RMK A01 T01950162  RH  081%=      5-min Rain = 0
KTH1 061636Z 18005KT 20/16 A3017 RMK A01 T01960162  RH  081%=      5-min Rain = 0
KTH1 061637Z 17004KT 20/16 A3017 RMK A01 T01970163  RH  080%=      5-min Rain = 0
KTH1 061638Z 18003KT 20/16 A3017 RMK A01 T01990163  RH  080%=      5-min Rain = 0
KTH1 061639Z 17005KT 20/16 A3017 RMK A01 T02000163  RH  079%=      5-min Rain = 0
KTH1 061640Z 16005KT 20/16 A3017 RMK A01 T02000162  RH  079%=      5-min Rain = 0
KTH1 061641Z 16005KT 20/16 A3017 RMK A01 T02000162  RH  079%=      5-min Rain = 0
KTH1 061642Z 15007KT 20/16 A3017 RMK A01 T02000162  RH  078%=      5-min Rain = 0
KTH1 061643Z 17006KT 20/16 A3017 RMK A01 T02000162  RH  079%=      5-min Rain = 0
KTH1 061644Z 16007KT 20/16 A3017 RMK A01 T02010163  RH  079%=      5-min Rain = 0
KTH1 061645Z 16008KT 20/16 A3017 RMK A01 T02010163  RH  078%=      5-min Rain = 0
KTH1 061646Z 16007KT 20/16 A3017 RMK A01 T02010163  RH  079%=      5-min Rain = 0
KTH1 061647Z 16007KT 20/16 A3017 RMK A01 T02010163  RH  079%=      5-min Rain = 0
KTH1 061648Z 16007KT 20/16 A3017 RMK A01 T02010163  RH  079%=      5-min Rain = 0
KTH1 061649Z 17006KT 20/16 A3017 RMK A01 T02010162  RH  078%=      5-min Rain = 0
KTH1 061650Z 15007KT 20/16 A3017 RMK A01 T02000162  RH  079%=      5-min Rain = 0
KTH1 061651Z 15007KT 20/16 A3017 RMK A01 T02000162  RH  079%=      5-min Rain = 0
KTH1 061652Z 17007KT 20/16 A3017 RMK A01 T02000161  RH  078%=      5-min Rain = 0
KTH1 061653Z 15006KT 20/16 A3017 RMK A01 T02000162  RH  078%=      5-min Rain = 0
KTH1 061654Z 16008KT 20/16 A3017 RMK A01 T02000162  RH  079%=      5-min Rain = 0
KTH1 061655Z 16006KT 20/16 A3017 RMK A01 T02010163  RH  079%=      5-min Rain = 0
KTH1 061656Z 16010KT 20/16 A3016 RMK A01 T02010163  RH  079%=      5-min Rain = 0
KTH1 061657Z 17006KT 20/16 A3016 RMK A01 T02020164  RH  079%=      5-min Rain = 0
KTH1 061658Z 17008KT 20/16 A3017 RMK A01 T02030164  RH  078%=      5-min Rain = 0
KTH1 061659Z 17009KT 20/16 A3016 RMK A01 T02030164  RH  078%=      5-min Rain = 0
KTH1 061700Z 18007KT 20/16 A3016 RMK A01 T02030163  RH  078%=      5-min Rain = 0
KTH1 061701Z 16005KT 20/16 A3016 RMK A01 T02040164  RH  078%=      5-min Rain = 0
KTH1 061702Z 16006KT 21/16 A3016 RMK A01 T02050164  RH  077%=      5-min Rain = 0
KTH1 061703Z 16008KT 21/17 A3016 RMK A01 T02060165  RH  077%=      5-min Rain = 0
KTH1 061704Z 16005KT 21/16 A3016 RMK A01 T02070164  RH  077%=      5-min Rain = 0
KTH1 061705Z 15008KT 21/17 A3016 RMK A01 T02070165  RH  076%=      5-min Rain = 0
KTH1 061706Z 16009KT 21/17 A3016 RMK A01 T02090165  RH  076%=      5-min Rain = 0
KTH1 061707Z 16009KT 21/17 A3016 RMK A01 T02090165  RH  076%=      5-min Rain = 0
KTH1 061708Z 16008KT 21/17 A3016 RMK A01 T02090165  RH  076%=      5-min Rain = 0
KTH1 061709Z 16008KT 21/17 A3016 RMK A01 T02090166  RH  076%=      5-min Rain = 0
KTH1 061710Z 16007KT 21/17 A3016 RMK A01 T02090166  RH  076%=      5-min Rain = 0
KTH1 061711Z 17008KT 21/17 A3016 RMK A01 T02090166  RH  076%=      5-min Rain = 0
KTH1 061712Z 18009KT 21/17 A3016 RMK A01 T02100166  RH  076%=      5-min Rain = 0
KTH1 061713Z 16004KT 21/17 A3016 RMK A01 T02100166  RH  076%=      5-min Rain = 0
KTH1 061714Z 16008KT 21/17 A3016 RMK A01 T02100166  RH  076%=      5-min Rain = 0
KTH1 061715Z 16007KT 21/17 A3016 RMK A01 T02110166  RH  076%=      5-min Rain = 0
KTH1 061716Z 16006KT 21/17 A3016 RMK A01 T02110167  RH  076%=      5-min Rain = 0
KTH1 061717Z 17005KT 21/17 A3016 RMK A01 T02120167  RH  075%=      5-min Rain = 0
KTH1 061718Z 17004KT 21/17 A3016 RMK A01 T02130167  RH  075%=      5-min Rain = 0
KTH1 061719Z 16007KT 21/17 A3016 RMK A01 T02140166  RH  074%=      5-min Rain = 0
KTH1 061720Z 18007KT 21/17 A3016 RMK A01 T02140166  RH  074%=      5-min Rain = 0
KTH1 061721Z 16004KT 21/17 A3015 RMK A01 T02140166  RH  074%=      5-min Rain = 0
KTH1 061722Z 15007KT 21/17 A3015 RMK A01 T02140167  RH  074%=      5-min Rain = 0
KTH1 061723Z 15008KT 22/17 A3015 RMK A01 T02150166  RH  074%=      5-min Rain = 0
KTH1 061724Z 15008KT 22/17 A3015 RMK A01 T02150166  RH  073%=      5-min Rain = 0
KTH1 061725Z 16009KT 22/17 A3015 RMK A01 T02160168  RH  074%=      5-min Rain = 0
KTH1 061726Z 15007KT 22/17 A3015 RMK A01 T02150168  RH  075%=      5-min Rain = 0
KTH1 061727Z 15006KT 22/17 A3015 RMK A01 T02150167  RH  074%=      5-min Rain = 0
KTH1 061728Z 15006KT 22/17 A3015 RMK A01 T02150168  RH  074%=      5-min Rain = 0
KTH1 061729Z 16006KT 22/17 A3015 RMK A01 T02150167  RH  074%=      5-min Rain = 0
KTH1 061730Z 17005KT 22/17 A3015 RMK A01 T02160169  RH  075%=      5-min Rain = 0
KTH1 061731Z 16008KT 22/17 A3015 RMK A01 T02180170  RH  074%=      5-min Rain = 0
KTH1 061732Z 15009KT 22/17 A3015 RMK A01 T02180169  RH  074%=      5-min Rain = 0
KTH1 061733Z 16010KT 22/17 A3015 RMK A01 T02180169  RH  073%=      5-min Rain = 0
KTH1 061734Z 15010KT 22/17 A3014 RMK A01 T02180169  RH  074%=      5-min Rain = 0
KTH1 061735Z 15009G15KT 22/17 A3014 RMK A01 T02180170  RH  074%=      5-min Rain = 0
KTH1 061736Z 15011G16KT 22/17 A3014 RMK A01 T02180169  RH  074%=      5-min Rain = 0
KTH1 061737Z 17010G15KT 22/17 A3014 RMK A01 T02180170  RH  074%=      5-min Rain = 0
KTH1 061738Z 17009KT 22/17 A3014 RMK A01 T02180170  RH  074%=      5-min Rain = 0
KTH1 061739Z 17008KT 22/17 A3014 RMK A01 T02170170  RH  074%=      5-min Rain = 0
KTH1 061740Z 18007KT 22/17 A3014 RMK A01 T02170169  RH  074%=      5-min Rain = 0
KTH1 061741Z 15009KT 22/17 A3014 RMK A01 T02170170  RH  074%=      5-min Rain = 0
KTH1 061742Z 16006KT 22/17 A3014 RMK A01 T02170170  RH  074%=      5-min Rain = 0
KTH1 061743Z 18007KT 22/17 A3014 RMK A01 T02180170  RH  074%=      5-min Rain = 0
KTH1 061744Z 18007KT 22/17 A3014 RMK A01 T02190170  RH  074%=      5-min Rain = 0
KTH1 061745Z 17006G11KT 22/17 A3014 RMK A01 T02190170  RH  074%=      5-min Rain = 0
KTH1 061746Z 17009KT 22/17 A3014 RMK A01 T02200170  RH  073%=      5-min Rain = 0
KTH1 061747Z 17009KT 22/17 A3014 RMK A01 T02200170  RH  073%=      5-min Rain = 0
KTH1 061748Z 17008KT 22/17 A3014 RMK A01 T02180169  RH  074%=      5-min Rain = 0
KTH1 061749Z 16008KT 22/17 A3014 RMK A01 T02170169  RH  074%=      5-min Rain = 0
KTH1 061750Z 16007KT 22/17 A3014 RMK A01 T02160169  RH  074%=      5-min Rain = 0
KTH1 061751Z 16007KT 22/17 A3014 RMK A01 T02160169  RH  075%=      5-min Rain = 0
KTH1 061752Z 16007KT 22/17 A3014 RMK A01 T02170169  RH  074%=      5-min Rain = 0
KTH1 061753Z 16009KT 22/17 A3014 RMK A01 T02170169  RH  074%=      5-min Rain = 0
KTH1 061754Z 17010KT 22/17 A3014 RMK A01 T02170169  RH  074%=      5-min Rain = 0
KTH1 061755Z 17010KT 22/17 A3014 RMK A01 T02170169  RH  074%=      5-min Rain = 0
KTH1 061756Z 17006KT 22/17 A3014 RMK A01 T02170170  RH  075%=      5-min Rain = 0
KTH1 061757Z 16008KT 22/17 A3014 RMK A01 T02170170  RH  075%=      5-min Rain = 0
KTH1 061758Z 16006KT 22/17 A3014 RMK A01 T02170169  RH  074%=      5-min Rain = 0
KTH1 061759Z 15008KT 22/17 A3014 RMK A01 T02180169  RH  074%=      5-min Rain = 0
KTH1 061800Z 16010KT 22/17 A3014 RMK A01 T02180169  RH  074%=      5-min Rain = 0
KTH1 061801Z 15010KT 22/17 A3014 RMK A01 T02180169  RH  074%=      5-min Rain = 0
KTH1 061802Z 16007KT 22/17 A3014 RMK A01 T02170169  RH  074%=      5-min Rain = 0
KTH1 061803Z 16008KT 22/17 A3014 RMK A01 T02170169  RH  074%=      5-min Rain = 0
KTH1 061804Z 15008KT 22/17 A3014 RMK A01 T02170169  RH  074%=      5-min Rain = 0
KTH1 061805Z 16007KT 22/17 A3014 RMK A01 T02170169  RH  074%=      5-min Rain = 0
KTH1 061806Z 16007KT 22/17 A3014 RMK A01 T02180169  RH  074%=      5-min Rain = 0
KTH1 061807Z 16010KT 22/17 A3014 RMK A01 T02180170  RH  074%=      5-min Rain = 0
KTH1 061808Z 16008KT 22/17 A3014 RMK A01 T02180170  RH  074%=      5-min Rain = 0
KTH1 061809Z 16008KT 22/17 A3014 RMK A01 T02190170  RH  074%=      5-min Rain = 0
KTH1 061810Z 17008KT 22/17 A3014 RMK A01 T02200171  RH  074%=      5-min Rain = 0
KTH1 061811Z 17008KT 22/17 A3014 RMK A01 T02200171  RH  073%=      5-min Rain = 0
KTH1 061812Z 17010KT 22/17 A3014 RMK A01 T02210171  RH  073%=      5-min Rain = 0
KTH1 061813Z 18007KT 22/17 A3013 RMK A01 T02210171  RH  073%=      5-min Rain = 0
KTH1 061814Z 19007KT 22/17 A3013 RMK A01 T02210172  RH  073%=      5-min Rain = 0
KTH1 061815Z 19007KT 22/17 A3013 RMK A01 T02210171  RH  073%=      5-min Rain = 0
KTH1 061816Z 18006KT 22/17 A3013 RMK A01 T02210171  RH  073%=      5-min Rain = 0
KTH1 061817Z 18006KT 22/17 A3013 RMK A01 T02220171  RH  073%=      5-min Rain = 0
KTH1 061818Z 18007KT 22/17 A3013 RMK A01 T02220171  RH  073%=      5-min Rain = 0
KTH1 061819Z 17009KT 22/17 A3013 RMK A01 T02230171  RH  072%=      5-min Rain = 0
KTH1 061820Z 17008KT 22/17 A3013 RMK A01 T02230171  RH  072%=      5-min Rain = 0
KTH1 061821Z 17007KT 22/17 A3013 RMK A01 T02220171  RH  073%=      5-min Rain = 0
KTH1 061822Z 16006KT 22/17 A3013 RMK A01 T02210171  RH  073%=      5-min Rain = 0
KTH1 061823Z 17004KT 22/17 A3013 RMK A01 T02210171  RH  073%=      5-min Rain = 0
KTH1 061824Z 16008KT 22/17 A3013 RMK A01 T02210171  RH  073%=      5-min Rain = 0
KTH1 061825Z 16007KT 22/17 A3013 RMK A01 T02210171  RH  073%=      5-min Rain = 0
KTH1 061826Z 17006KT 22/17 A3013 RMK A01 T02200171  RH  073%=      5-min Rain = 0
KTH1 061827Z 17009KT 22/17 A3013 RMK A01 T02200171  RH  073%=      5-min Rain = 0
KTH1 061828Z 17008KT 22/17 A3013 RMK A01 T02200170  RH  073%=      5-min Rain = 0
KTH1 061829Z 17008KT 22/17 A3013 RMK A01 T02200170  RH  073%=      5-min Rain = 0
KTH1 061830Z 17007KT 22/17 A3012 RMK A01 T02200170  RH  073%=      5-min Rain = 0
KTH1 061831Z 18006KT 22/17 A3012 RMK A01 T02200170  RH  073%=      5-min Rain = 0
KTH1 061832Z 15004KT 22/17 A3012 RMK A01 T02200170  RH  073%=      5-min Rain = 0
KTH1 061833Z 15006KT 22/17 A3012 RMK A01 T02200170  RH  073%=      5-min Rain = 0
KTH1 061834Z 16008KT 22/17 A3012 RMK A01 T02210170  RH  073%=      5-min Rain = 0
KTH1 061835Z 16007KT 22/17 A3012 RMK A01 T02210170  RH  072%=      5-min Rain = 0
KTH1 061836Z 15006KT 22/17 A3012 RMK A01 T02210169  RH  073%=      5-min Rain = 0
KTH1 061837Z 15006KT 22/17 A3012 RMK A01 T02200170  RH  073%=      5-min Rain = 0
KTH1 061838Z 17005KT 22/17 A3012 RMK A01 T02200170  RH  073%=      5-min Rain = 0
KTH1 061839Z 17005KT 22/17 A3012 RMK A01 T02200169  RH  073%=      5-min Rain = 0
KTH1 061840Z 17005KT 22/17 A3012 RMK A01 T02210170  RH  073%=      5-min Rain = 0
KTH1 061841Z 17004KT 22/17 A3012 RMK A01 T02210170  RH  073%=      5-min Rain = 0
KTH1 061842Z 16004KT 22/17 A3012 RMK A01 T02200169  RH  073%=      5-min Rain = 0
KTH1 061843Z 14005KT 22/17 A3012 RMK A01 T02200170  RH  073%=      5-min Rain = 0
KTH1 061844Z 15004KT 22/17 A3012 RMK A01 T02200170  RH  073%=      5-min Rain = 0
KTH1 061845Z 16006KT 22/17 A3012 RMK A01 T02210170  RH  073%=      5-min Rain = 0
KTH1 061846Z 16007KT 22/17 A3012 RMK A01 T02210170  RH  073%=      5-min Rain = 0
KTH1 061847Z 16005KT 22/17 A3011 RMK A01 T02210170  RH  073%=      5-min Rain = 0
KTH1 061848Z 16005KT 22/17 A3011 RMK A01 T02210170  RH  073%=      5-min Rain = 0
KTH1 061849Z 17005KT 22/17 A3011 RMK A01 T02210170  RH  073%=      5-min Rain = 0
KTH1 061850Z 16005KT 22/17 A3011 RMK A01 T02210170  RH  073%=      5-min Rain = 0
KTH1 061851Z 17004KT 22/17 A3011 RMK A01 T02210170  RH  073%=      5-min Rain = 0
KTH1 061852Z 17004KT 22/17 A3011 RMK A01 T02210170  RH  073%=      5-min Rain = 0
KTH1 061853Z 16003KT 22/17 A3011 RMK A01 T02210170  RH  073%=      5-min Rain = 0
KTH1 061854Z 16005KT 22/17 A3011 RMK A01 T02210170  RH  073%=      5-min Rain = 0
KTH1 061855Z 16004KT 22/17 A301 RMK A01 T02220171  RH  073%=      5-min Rain = 0
KTH1 061856Z 16003KT 22/17 A301 RMK A01 T02220171  RH  073%=      5-min Rain = 0
KTH1 061857Z 18004KT 22/17 A301 RMK A01 T02230172  RH  073%=      5-min Rain = 0
KTH1 061858Z 16003KT 22/17 A301 RMK A01 T02240172  RH  072%=      5-min Rain = 0
KTH1 061859Z 16004KT 23/17 A301 RMK A01 T02250172  RH  072%=      5-min Rain = 0
KTH1 061900Z 16005KT 23/17 A301 RMK A01 T02250172  RH  072%=      5-min Rain = 0
KTH1 061901Z 16004KT 23/17 A301 RMK A01 T02250172  RH  072%=      5-min Rain = 0
KTH1 061902Z 15004KT 23/17 A301 RMK A01 T02250172  RH  072%=      5-min Rain = 0
KTH1 061903Z 15004KT 23/17 A301 RMK A01 T02250172  RH  072%=      5-min Rain = 0
KTH1 061904Z 15006KT 23/17 A301 RMK A01 T02260172  RH  072%=      5-min Rain = 0
KTH1 061905Z 15004KT 23/17 A301 RMK A01 T02260172  RH  071%=      5-min Rain = 0
KTH1 061906Z 15006KT 23/17 A301 RMK A01 T02260172  RH  072%=      5-min Rain = 0
KTH1 061907Z 16004KT 23/17 A301 RMK A01 T02260172  RH  071%=      5-min Rain = 0
KTH1 061908Z 17004KT 23/17 A301 RMK A01 T02260172  RH  072%=      5-min Rain = 0
KTH1 061909Z 15004KT 23/17 A301 RMK A01 T02250172  RH  072%=      5-min Rain = 0
KTH1 061910Z 16004KT 23/17 A301 RMK A01 T02250172  RH  072%=      5-min Rain = 0
KTH1 061911Z 15006KT 23/17 A301 RMK A01 T02260172  RH  072%=      5-min Rain = 0
KTH1 061912Z 16006KT 23/17 A301 RMK A01 T02260172  RH  072%=      5-min Rain = 0
KTH1 061913Z 15006KT 23/17 A301 RMK A01 T02260173  RH  072%=      5-min Rain = 0
KTH1 061914Z 16005KT 23/17 A301 RMK A01 T02250172  RH  072%=      5-min Rain = 0
KTH1 061915Z 16005KT 23/17 A301 RMK A01 T02250172  RH  072%=      5-min Rain = 0
KTH1 061916Z 16006KT 23/17 A301 RMK A01 T02250172  RH  072%=      5-min Rain = 0
KTH1 061917Z 15006KT 23/17 A3009 RMK A01 T02250172  RH  072%=      5-min Rain = 0
KTH1 061918Z 15006KT 23/17 A3009 RMK A01 T02250172  RH  072%=      5-min Rain = 0
KTH1 061919Z 15005KT 22/17 A3009 RMK A01 T02240172  RH  072%=      5-min Rain = 0
KTH1 061920Z 16003KT 23/17 A3009 RMK A01 T02250172  RH  072%=      5-min Rain = 0
KTH1 061921Z 16002KT 23/17 A3009 RMK A01 T02250172  RH  072%=      5-min Rain = 0
KTH1 061922Z 15004KT 23/17 A3009 RMK A01 T02250172  RH  072%=      5-min Rain = 0
KTH1 061923Z 16005KT 23/17 A3009 RMK A01 T02250172  RH  072%=      5-min Rain = 0
KTH1 061924Z 15005KT 23/17 A3009 RMK A01 T02260172  RH  072%=      5-min Rain = 0
KTH1 061925Z 15005KT 23/17 A3009 RMK A01 T02260173  RH  072%=      5-min Rain = 0
KTH1 061926Z 15004KT 23/17 A3009 RMK A01 T02260172  RH  072%=      5-min Rain = 0
KTH1 061927Z 15003KT 23/17 A3009 RMK A01 T02260172  RH  072%=      5-min Rain = 0
KTH1 061928Z 14002KT 23/17 A3009 RMK A01 T02260173  RH  072%=      5-min Rain = 0
KTH1 061929Z 16003KT 23/17 A3009 RMK A01 T02270173  RH  072%=      5-min Rain = 0
KTH1 061930Z 16003KT 23/17 A3009 RMK A01 T02270173  RH  072%=      5-min Rain = 0
KTH1 061931Z 13003KT 23/17 A3009 RMK A01 T02270173  RH  071%=      5-min Rain = 0
KTH1 061932Z 16002KT 23/17 A3009 RMK A01 T02280173  RH  071%=      5-min Rain = 0
KTH1 061933Z 16002KT 23/17 A3009 RMK A01 T02280173  RH  071%=      5-min Rain = 0
KTH1 061934Z 15004KT 23/17 A3009 RMK A01 T02280173  RH  071%=      5-min Rain = 0
KTH1 061935Z 15004KT 23/17 A3009 RMK A01 T02280173  RH  071%=      5-min Rain = 0
KTH1 061936Z 15004KT 23/17 A3009 RMK A01 T02280173  RH  071%=      5-min Rain = 0
KTH1 061937Z 15004KT 23/17 A3009 RMK A01 T02290173  RH  071%=      5-min Rain = 0
KTH1 061938Z 14004KT 23/17 A3009 RMK A01 T02290173  RH  071%=      5-min Rain = 0
KTH1 061939Z 15006KT 23/17 A3009 RMK A01 T02290173  RH  071%=      5-min Rain = 0
KTH1 061940Z 15005KT 23/17 A3009 RMK A01 T02290173  RH  070%=      5-min Rain = 0
KTH1 061941Z 16006KT 23/17 A3009 RMK A01 T02290173  RH  070%=      5-min Rain = 0
KTH1 061942Z 16005KT 23/17 A3009 RMK A01 T02300173  RH  070%=      5-min Rain = 0
KTH1 061943Z 16004KT 23/17 A3009 RMK A01 T02290173  RH  070%=      5-min Rain = 0
KTH1 061944Z 15004KT 23/17 A3009 RMK A01 T02300173  RH  070%=      5-min Rain = 0
KTH1 061945Z 15004KT 23/17 A3009 RMK A01 T02290173  RH  070%=      5-min Rain = 0
KTH1 061946Z 15005KT 23/17 A3009 RMK A01 T02300173  RH  070%=      5-min Rain = 0
KTH1 061947Z 15004KT 23/17 A3009 RMK A01 T02290173  RH  070%=      5-min Rain = 0
KTH1 061948Z 15003KT 23/17 A3009 RMK A01 T02300173  RH  070%=      5-min Rain = 0
KTH1 061949Z 14002KT 23/17 A3009 RMK A01 T02290173  RH  070%=      5-min Rain = 0
KTH1 061950Z 15003KT 23/17 A3009 RMK A01 T02300173  RH  070%=      5-min Rain = 0
KTH1 061951Z 16003KT 23/17 A3009 RMK A01 T02300173  RH  070%=      5-min Rain = 0
KTH1 061952Z 15002KT 23/17 A3009 RMK A01 T02300173  RH  070%=      5-min Rain = 0
KTH1 061953Z 15003KT 23/17 A3009 RMK A01 T02300173  RH  070%=      5-min Rain = 0
KTH1 061954Z 15005KT 23/17 A3009 RMK A01 T02300173  RH  070%=      5-min Rain = 0
KTH1 061955Z 15004KT 23/17 A3008 RMK A01 T02300173  RH  070%=      5-min Rain = 0
KTH1 061956Z 15003KT 23/17 A3008 RMK A01 T02300173  RH  070%=      5-min Rain = 0
KTH1 061957Z 15004KT 23/17 A3008 RMK A01 T02300173  RH  070%=      5-min Rain = 0
KTH1 061958Z 15003KT 23/17 A3008 RMK A01 T02310173  RH  070%=      5-min Rain = 0
KTH1 061959Z 15003KT 23/17 A3008 RMK A01 T02300173  RH  070%=      5-min Rain = 0
KTH1 062000Z 14004KT 23/17 A3008 RMK A01 T02310173  RH  070%=      5-min Rain = 0
KTH1 062001Z 14003KT 23/17 A3008 RMK A01 T02300173  RH  070%=      5-min Rain = 0
KTH1 062002Z 14003KT 23/17 A3008 RMK A01 T02300173  RH  070%=      5-min Rain = 0
KTH1 062003Z 14003KT 23/17 A3008 RMK A01 T02300173  RH  070%=      5-min Rain = 0
KTH1 062004Z 15003KT 23/17 A3008 RMK A01 T02300173  RH  070%=      5-min Rain = 0
KTH1 062005Z 15003KT 23/17 A3008 RMK A01 T02310173  RH  070%=      5-min Rain = 0
KTH1 062006Z 15005KT 23/17 A3008 RMK A01 T02300173  RH  070%=      5-min Rain = 0
KTH1 062007Z 14004KT 23/17 A3008 RMK A01 T02300173  RH  070%=      5-min Rain = 0
KTH1 062008Z 14004KT 23/17 A3008 RMK A01 T02310173  RH  070%=      5-min Rain = 0
KTH1 062009Z 14004KT 23/17 A3008 RMK A01 T02310173  RH  070%=      5-min Rain = 0
KTH1 062010Z 14005KT 23/17 A3008 RMK A01 T02310173  RH  070%=      5-min Rain = 0
KTH1 062011Z 14003KT 23/17 A3008 RMK A01 T02320173  RH  070%=      5-min Rain = 0
KTH1 062012Z 14003KT 23/17 A3008 RMK A01 T02310173  RH  070%=      5-min Rain = 0
KTH1 062013Z 14005KT 23/17 A3008 RMK A01 T02310173  RH  070%=      5-min Rain = 0
KTH1 062014Z 15004KT 23/17 A3008 RMK A01 T02310173  RH  070%=      5-min Rain = 0
KTH1 062015Z 16003KT 23/17 A3008 RMK A01 T02310173  RH  070%=      5-min Rain = 0
KTH1 062016Z 14004KT 23/17 A3008 RMK A01 T02320173  RH  070%=      5-min Rain = 0
KTH1 062017Z 14003KT 23/17 A3008 RMK A01 T02310173  RH  070%=      5-min Rain = 0
KTH1 062018Z 14004KT 23/17 A3008 RMK A01 T02310173  RH  070%=      5-min Rain = 0
KTH1 062019Z 14004KT 23/17 A3008 RMK A01 T02310173  RH  070%=      5-min Rain = 0
KTH1 062020Z 13003KT 23/17 A3008 RMK A01 T02310173  RH  070%=      5-min Rain = 0
KTH1 062021Z 15004KT 23/17 A3008 RMK A01 T02310174  RH  070%=      5-min Rain = 0
KTH1 062022Z 14004KT 23/17 A3008 RMK A01 T02310174  RH  070%=      5-min Rain = 0
KTH1 062023Z 15004KT 23/17 A3008 RMK A01 T02310174  RH  070%=      5-min Rain = 0
KTH1 062024Z 14004KT 23/17 A3007 RMK A01 T02310174  RH  070%=      5-min Rain = 0
KTH1 062025Z 13003KT 23/17 A3007 RMK A01 T02310174  RH  070%=      5-min Rain = 0
KTH1 062026Z 12003KT 23/17 A3007 RMK A01 T02310174  RH  070%=      5-min Rain = 0
KTH1 062027Z 12003KT 23/17 A3007 RMK A01 T02310174  RH  070%=      5-min Rain = 0
KTH1 062028Z 13003KT 23/17 A3007 RMK A01 T02320174  RH  070%=      5-min Rain = 0
KTH1 062029Z 13003KT 23/17 A3007 RMK A01 T02320174  RH  070%=      5-min Rain = 0
KTH1 062030Z 13003KT 23/17 A3007 RMK A01 T02330174  RH  070%=      5-min Rain = 0
KTH1 062031Z 13004KT 23/17 A3007 RMK A01 T02330174  RH  069%=      5-min Rain = 0
KTH1 062032Z 12003KT 23/17 A3007 RMK A01 T02330174  RH  069%=      5-min Rain = 0
KTH1 062033Z 12002KT 23/17 A3007 RMK A01 T02340174  RH  069%=      5-min Rain = 0
KTH1 062034Z 13002KT 23/17 A3007 RMK A01 T02340174  RH  069%=      5-min Rain = 0
KTH1 062035Z 13002KT 23/17 A3007 RMK A01 T02340174  RH  069%=      5-min Rain = 0
KTH1 062036Z 12004KT 23/17 A3007 RMK A01 T02340174  RH  069%=      5-min Rain = 0
KTH1 062037Z 12003KT 23/17 A3007 RMK A01 T02340174  RH  069%=      5-min Rain = 0
KTH1 062038Z 12003KT 23/17 A3007 RMK A01 T02340174  RH  069%=      5-min Rain = 0
KTH1 062039Z 14004KT 23/17 A3007 RMK A01 T02340174  RH  069%=      5-min Rain = 0
KTH1 062040Z 14004KT 23/17 A3007 RMK A01 T02340174  RH  069%=      5-min Rain = 0
KTH1 062041Z 14004KT 23/17 A3007 RMK A01 T02340174  RH  069%=      5-min Rain = 0
KTH1 062042Z 13004KT 23/17 A3007 RMK A01 T02340174  RH  069%=      5-min Rain = 0
KTH1 062043Z 13003KT 23/18 A3007 RMK A01 T02340175  RH  069%=      5-min Rain = 0
KTH1 062044Z 13003KT 23/18 A3007 RMK A01 T02340175  RH  069%=      5-min Rain = 0
KTH1 062045Z 14003KT 23/18 A3007 RMK A01 T02340175  RH  069%=      5-min Rain = 0
KTH1 062046Z 14004KT 23/18 A3007 RMK A01 T02330175  RH  070%=      5-min Rain = 0
KTH1 062047Z 13003KT 23/18 A3007 RMK A01 T02330175  RH  070%=      5-min Rain = 0
KTH1 062048Z 12003KT 23/18 A3007 RMK A01 T02330175  RH  070%=      5-min Rain = 0
KTH1 062049Z 14003KT 23/18 A3007 RMK A01 T02330175  RH  070%=      5-min Rain = 0
KTH1 062050Z 14003KT 23/18 A3007 RMK A01 T02330175  RH  070%=      5-min Rain = 0
KTH1 062051Z 14004KT 23/18 A3007 RMK A01 T02330175  RH  070%=      5-min Rain = 0
KTH1 062052Z 14003KT 23/18 A3007 RMK A01 T02330175  RH  070%=      5-min Rain = 0
KTH1 062053Z 14002KT 23/18 A3007 RMK A01 T02330175  RH  070%=      5-min Rain = 0
KTH1 062054Z 14003KT 23/18 A3007 RMK A01 T02330175  RH  070%=      5-min Rain = 0
KTH1 062055Z 14002KT 23/18 A3007 RMK A01 T02330176  RH  070%=      5-min Rain = 0
KTH1 062056Z 15002KT 23/18 A3007 RMK A01 T02330175  RH  070%=      5-min Rain = 0
KTH1 062057Z 14002KT 23/18 A3007 RMK A01 T02330175  RH  070%=      5-min Rain = 0
KTH1 062058Z 13002KT 23/18 A3007 RMK A01 T02330176  RH  070%=      5-min Rain = 0
KTH1 062059Z 14002KT 23/18 A3007 RMK A01 T02340176  RH  070%=      5-min Rain = 0
KTH1 062100Z 14003KT 23/18 A3007 RMK A01 T02340176  RH  070%=      5-min Rain = 0
KTH1 062101Z 13002KT 23/18 A3007 RMK A01 T02340176  RH  070%=      5-min Rain = 0
KTH1 062102Z 13003KT 23/18 A3007 RMK A01 T02340176  RH  070%=      5-min Rain = 0
KTH1 062103Z 13002KT 23/18 A3007 RMK A01 T02340176  RH  070%=      5-min Rain = 0
KTH1 062104Z 13003KT 23/18 A3007 RMK A01 T02330176  RH  070%=      5-min Rain = 0
KTH1 062105Z 13003KT 23/18 A3007 RMK A01 T02330176  RH  070%=      5-min Rain = 0
KTH1 062106Z 13003KT 23/18 A3007 RMK A01 T02340176  RH  070%=      5-min Rain = 0
KTH1 062107Z 13003KT 23/18 A3007 RMK A01 T02340176  RH  070%=      5-min Rain = 0
KTH1 062108Z 13003KT 23/18 A3007 RMK A01 T02340176  RH  070%=      5-min Rain = 0
KTH1 062109Z 14002KT 23/18 A3007 RMK A01 T02340176  RH  070%=      5-min Rain = 0
KTH1 062110Z 13002KT 23/18 A3007 RMK A01 T02340176  RH  070%=      5-min Rain = 0
KTH1 062111Z 14002KT 23/18 A3007 RMK A01 T02340176  RH  070%=      5-min Rain = 0
KTH1 062112Z 14003KT 23/18 A3007 RMK A01 T02340176  RH  070%=      5-min Rain = 0
KTH1 062113Z 13003KT 23/18 A3007 RMK A01 T02340176  RH  070%=      5-min Rain = 0
KTH1 062114Z 13002KT 23/18 A3007 RMK A01 T02330176  RH  070%=      5-min Rain = 0
KTH1 062115Z 14002KT 23/18 A3007 RMK A01 T02330176  RH  070%=      5-min Rain = 0
KTH1 062116Z 14003KT 23/18 A3007 RMK A01 T02330177  RH  070%=      5-min Rain = 0
KTH1 062117Z 15002KT 23/18 A3007 RMK A01 T02330176  RH  070%=      5-min Rain = 0
KTH1 062118Z 14002KT 23/18 A3007 RMK A01 T02330176  RH  071%=      5-min Rain = 0
KTH1 062119Z 14002KT 23/18 A3007 RMK A01 T02330177  RH  071%=      5-min Rain = 0
KTH1 062120Z 15002KT 23/18 A3007 RMK A01 T02320177  RH  071%=      5-min Rain = 0
KTH1 062121Z 14002KT 23/18 A3007 RMK A01 T02330177  RH  071%=      5-min Rain = 0
KTH1 062122Z 14002KT 23/18 A3007 RMK A01 T02320177  RH  071%=      5-min Rain = 0
KTH1 062123Z 14003KT 23/18 A3007 RMK A01 T02320177  RH  071%=      5-min Rain = 0
KTH1 062124Z 14002KT 23/18 A3006 RMK A01 T02320177  RH  071%=      5-min Rain = 0
KTH1 062125Z 14002KT 23/18 A3006 RMK A01 T02320177  RH  071%=      5-min Rain = 0
KTH1 062126Z 14003KT 23/18 A3006 RMK A01 T02320177  RH  071%=      5-min Rain = 0
KTH1 062127Z 13002KT 23/18 A3006 RMK A01 T02320178  RH  072%=      5-min Rain = 0
KTH1 062128Z 13003KT 23/18 A3006 RMK A01 T02310178  RH  072%=      5-min Rain = 0
KTH1 062129Z 13002KT 23/18 A3006 RMK A01 T02310180  RH  073%=      5-min Rain = 0
KTH1 062130Z 14003KT 23/18 A3006 RMK A01 T02300181  RH  074%=      5-min Rain = 0
KTH1 062131Z 13003KT 23/18 A3006 RMK A01 T02300182  RH  074%=      5-min Rain = 0
KTH1 062132Z 13003KT 23/18 A3006 RMK A01 T02290184  RH  075%=      5-min Rain = 0
KTH1 062133Z 12003KT 23/18 A3006 RMK A01 T02280183  RH  076%=      5-min Rain = 0
KTH1 062134Z 13003KT 23/18 A3006 RMK A01 T02280182  RH  076%=      5-min Rain = 0
KTH1 062135Z 12003KT 23/18 A3006 RMK A01 T02270183  RH  076%=      5-min Rain = 0
KTH1 062136Z 12003KT 23/18 A3006 RMK A01 T02270183  RH  076%=      5-min Rain = 0
KTH1 062137Z 12002KT 23/18 A3006 RMK A01 T02270184  RH  077%=      5-min Rain = 0
KTH1 062138Z 12003KT 23/18 A3006 RMK A01 T02260184  RH  077%=      5-min Rain = 0
KTH1 062139Z 13003KT 23/19 A3006 RMK A01 T02260185  RH  077%=      5-min Rain = 0
KTH1 062140Z 15002KT 23/19 A3006 RMK A01 T02260186  RH  078%=      5-min Rain = 0
KTH1 062141Z 14003KT 23/19 A3006 RMK A01 T02260186  RH  078%=      5-min Rain = 0
KTH1 062142Z 13003KT 23/19 A3006 RMK A01 T02260185  RH  078%=      5-min Rain = 0
KTH1 062143Z 12004KT 23/18 A3006 RMK A01 T02260184  RH  077%=      5-min Rain = 0
KTH1 062144Z 12004KT 23/18 A3006 RMK A01 T02260184  RH  077%=      5-min Rain = 0
KTH1 062145Z 12003KT 23/18 A3006 RMK A01 T02260184  RH  077%=      5-min Rain = 0
KTH1 062146Z 12003KT 23/18 A3006 RMK A01 T02260184  RH  077%=      5-min Rain = 0
KTH1 062147Z 11003KT 23/18 A3006 RMK A01 T02260184  RH  077%=      5-min Rain = 0
KTH1 062148Z 11003KT 23/18 A3006 RMK A01 T02260184  RH  077%=      5-min Rain = 0
KTH1 062149Z 11003KT 23/18 A3006 RMK A01 T02260184  RH  077%=      5-min Rain = 0
KTH1 062150Z 12003KT 23/18 A3006 RMK A01 T02260184  RH  077%=      5-min Rain = 0
KTH1 062151Z 11003KT 23/18 A3006 RMK A01 T02260184  RH  077%=      5-min Rain = 0
KTH1 062152Z 11003KT 23/18 A3006 RMK A01 T02260184  RH  077%=      5-min Rain = 0
KTH1 062153Z 11003KT 23/18 A3006 RMK A01 T02260184  RH  077%=      5-min Rain = 0
KTH1 062154Z 10002KT 23/18 A3006 RMK A01 T02260184  RH  077%=      5-min Rain = 0
KTH1 062155Z 10002KT 23/18 A3006 RMK A01 T02260184  RH  077%=      5-min Rain = 0
KTH1 062156Z 11002KT 23/18 A3006 RMK A01 T02260184  RH  077%=      5-min Rain = 0
KTH1 062157Z 10002KT 23/18 A3006 RMK A01 T02260184  RH  077%=      5-min Rain = 0
KTH1 062158Z 10002KT 23/18 A3006 RMK A01 T02260184  RH  077%=      5-min Rain = 0
KTH1 062159Z 10002KT 23/19 A3006 RMK A01 T02260185  RH  077%=      5-min Rain = 0
KTH1 062200Z 11002KT 23/18 A3006 RMK A01 T02260184  RH  077%=      5-min Rain = 0
KTH1 062201Z 10002KT 23/18 A3005 RMK A01 T02260184  RH  077%=      5-min Rain = 0
KTH1 062202Z 10003KT 23/18 A3005 RMK A01 T02260184  RH  077%=      5-min Rain = 0
KTH1 062203Z 10003KT 23/19 A3005 RMK A01 T02260185  RH  078%=      5-min Rain = 0
KTH1 062204Z 10003KT 23/19 A3005 RMK A01 T02250185  RH  078%=      5-min Rain = 0
KTH1 062205Z 10003KT 23/18 A3005 RMK A01 T02250184  RH  078%=      5-min Rain = 0
KTH1 062206Z 10003KT 23/19 A3005 RMK A01 T02250185  RH  078%=      5-min Rain = 0
KTH1 062207Z 10003KT 23/19 A3005 RMK A01 T02250185  RH  078%=      5-min Rain = 0
KTH1 062208Z 10003KT 23/19 A3005 RMK A01 T02250185  RH  078%=      5-min Rain = 0
KTH1 062209Z 10004KT 22/19 A3005 RMK A01 T02240185  RH  078%=      5-min Rain = 0
KTH1 062210Z 10004KT 22/19 A3005 RMK A01 T02240185  RH  078%=      5-min Rain = 0
KTH1 062211Z 10004KT 22/19 A3005 RMK A01 T02240185  RH  078%=      5-min Rain = 0
KTH1 062212Z 11004KT 22/19 A3005 RMK A01 T02240185  RH  078%=      5-min Rain = 0
KTH1 062213Z 10004KT 22/19 A3005 RMK A01 T02240185  RH  078%=      5-min Rain = 0
KTH1 062214Z 10004KT 22/19 A3005 RMK A01 T02240185  RH  078%=      5-min Rain = 0
KTH1 062215Z 11005KT 22/18 A3005 RMK A01 T02240184  RH  078%=      5-min Rain = 0
KTH1 062216Z 10004KT 22/18 A3005 RMK A01 T02240184  RH  078%=      5-min Rain = 0
KTH1 062217Z 11003KT 22/19 A3005 RMK A01 T02240185  RH  078%=      5-min Rain = 0
KTH1 062218Z 11004KT 23/19 A3006 RMK A01 T02250185  RH  078%=      5-min Rain = 0
KTH1 062219Z 11003KT 22/19 A3006 RMK A01 T02240185  RH  078%=      5-min Rain = 0
KTH1 062220Z 11003KT 22/19 A3006 RMK A01 T02240185  RH  078%=      5-min Rain = 0
KTH1 062221Z 11004KT 22/19 A3006 RMK A01 T02240185  RH  079%=      5-min Rain = 0
KTH1 062222Z 11005KT 22/19 A3006 RMK A01 T02240185  RH  079%=      5-min Rain = 0
KTH1 062223Z 12004KT 22/19 A3006 RMK A01 T02240186  RH  079%=      5-min Rain = 0
KTH1 062224Z 11004KT 22/19 A3006 RMK A01 T02240185  RH  079%=      5-min Rain = 0
KTH1 062225Z 12005KT 22/19 A3006 RMK A01 T02240185  RH  079%=      5-min Rain = 0
KTH1 062226Z 11004KT 22/19 A3006 RMK A01 T02240185  RH  079%=      5-min Rain = 0
KTH1 062227Z 12004KT 22/19 A3006 RMK A01 T02230185  RH  079%=      5-min Rain = 0
KTH1 062228Z 12005KT 22/19 A3006 RMK A01 T02230186  RH  079%=      5-min Rain = 0
KTH1 062229Z 12005KT 22/19 A3006 RMK A01 T02230185  RH  079%=      5-min Rain = 0
KTH1 062230Z 12006KT 22/19 A3005 RMK A01 T02230186  RH  080%=      5-min Rain = 0
KTH1 062231Z 12006KT 22/19 A3005 RMK A01 T02220186  RH  080%=      5-min Rain = 0
KTH1 062232Z 12006KT 22/19 A3005 RMK A01 T02220186  RH  080%=      5-min Rain = 0
KTH1 062233Z 12006KT 22/19 A3006 RMK A01 T02220186  RH  080%=      5-min Rain = 0
KTH1 062234Z 13007KT 22/19 A3006 RMK A01 T02220186  RH  080%=      5-min Rain = 0
KTH1 062235Z 12005KT 22/19 A3006 RMK A01 T02210186  RH  080%=      5-min Rain = 0
KTH1 062236Z 13006KT 22/19 A3006 RMK A01 T02210186  RH  081%=      5-min Rain = 0
KTH1 062237Z 13006KT 22/19 A3006 RMK A01 T02200186  RH  081%=      5-min Rain = 0
KTH1 062238Z 13005KT 22/19 A3006 RMK A01 T02200186  RH  081%=      5-min Rain = 0
KTH1 062239Z 13005KT 22/19 A3006 RMK A01 T02200186  RH  081%=      5-min Rain = 0
KTH1 062240Z 13005KT 22/19 A3006 RMK A01 T02190186  RH  081%=      5-min Rain = 0
KTH1 062241Z 12007KT 22/19 A3006 RMK A01 T02190186  RH  081%=      5-min Rain = 0
KTH1 062242Z 13006KT 22/19 A3005 RMK A01 T02200186  RH  081%=      5-min Rain = 0
KTH1 062243Z 13005KT 22/19 A3005 RMK A01 T02190186  RH  081%=      5-min Rain = 0
KTH1 062244Z 14006KT 22/19 A3005 RMK A01 T02190186  RH  081%=      5-min Rain = 0
KTH1 062245Z 14007KT 22/19 A3006 RMK A01 T02190186  RH  081%=      5-min Rain = 0
KTH1 062246Z 14006KT 22/19 A3006 RMK A01 T02190186  RH  082%=      5-min Rain = 0
KTH1 062247Z 13007KT 22/19 A3006 RMK A01 T02180186  RH  082%=      5-min Rain = 0
KTH1 062248Z 14007KT 22/19 A3006 RMK A01 T02180187  RH  083%=      5-min Rain = 0
KTH1 062249Z 13007KT 22/19 A3006 RMK A01 T02170188  RH  084%=      5-min Rain = 0
KTH1 062250Z 13008KT 22/19 A3006 RMK A01 T02160189  RH  084%=      5-min Rain = 0
KTH1 062251Z 13006KT 22/19 A3006 RMK A01 T02150189  RH  085%=      5-min Rain = 0
KTH1 062252Z 12006KT 21/19 A3006 RMK A01 T02140189  RH  086%=      5-min Rain = 0
KTH1 062253Z 12007KT 21/19 A3005 RMK A01 T02120189  RH  087%=      5-min Rain = 0
KTH1 062254Z 12006KT 21/19 A3005 RMK A01 T02120189  RH  087%=      5-min Rain = 0
KTH1 062255Z 12005KT 21/19 A3005 RMK A01 T02110189  RH  087%=      5-min Rain = 0
KTH1 062256Z 13005KT 21/19 A3005 RMK A01 T02100189  RH  088%=      5-min Rain = 0
KTH1 062257Z 13005KT 21/19 A3006 RMK A01 T02100190  RH  088%=      5-min Rain = 0
KTH1 062258Z 13005KT 21/19 A3006 RMK A01 T02090190  RH  089%=      5-min Rain = 0
KTH1 062259Z 13006KT 21/19 A3006 RMK A01 T02080190  RH  089%=      5-min Rain = 0
KTH1 062300Z 13005KT 21/19 A3006 RMK A01 T02080190  RH  089%=      5-min Rain = 0
KTH1 062301Z 13005KT 21/19 A3006 RMK A01 T02080190  RH  089%=      5-min Rain = 0
KTH1 062302Z 13006KT 21/19 A3006 RMK A01 T02080190  RH  090%=      5-min Rain = 0
KTH1 062303Z 13006KT 21/19 A3006 RMK A01 T02070190  RH  090%=      5-min Rain = 0
KTH1 062304Z 13006KT 21/19 A3006 RMK A01 T02070190  RH  090%=      5-min Rain = 0
KTH1 062305Z 13006KT 21/19 A3006 RMK A01 T02060190  RH  090%=      5-min Rain = 0
KTH1 062306Z 12006KT 21/19 A3006 RMK A01 T02070190  RH  090%=      5-min Rain = 0
KTH1 062307Z 13006KT 21/19 A3006 RMK A01 T02070190  RH  090%=      5-min Rain = 0
KTH1 062308Z 13005KT 21/19 A3006 RMK A01 T02060190  RH  090%=      5-min Rain = 0
KTH1 062309Z 12006KT 21/19 A3006 RMK A01 T02060190  RH  090%=      5-min Rain = 0
KTH1 062310Z 12005KT 21/19 A3006 RMK A01 T02070190  RH  090%=      5-min Rain = 0
KTH1 062311Z 12006KT 21/19 A3006 RMK A01 T02070190  RH  090%=      5-min Rain = 0
KTH1 062312Z 12005KT 21/19 A3006 RMK A01 T02060190  RH  090%=      5-min Rain = 0
KTH1 062313Z 13005KT 21/19 A3006 RMK A01 T02060190  RH  090%=      5-min Rain = 0
KTH1 062314Z 13005KT 21/19 A3006 RMK A01 T02070190  RH  090%=      5-min Rain = 0
KTH1 062315Z 13006KT 21/19 A3006 RMK A01 T02070190  RH  090%=      5-min Rain = 0
KTH1 062316Z 13005KT 21/19 A3006 RMK A01 T02070191  RH  090%=      5-min Rain = 0
KTH1 062317Z 13005KT 21/19 A3006 RMK A01 T02060190  RH  091%=      5-min Rain = 0
KTH1 062318Z 13006KT 21/19 A3006 RMK A01 T02060190  RH  091%=      5-min Rain = 0
KTH1 062319Z 13006KT 21/19 A3006 RMK A01 T02060190  RH  091%=      5-min Rain = 0
KTH1 062320Z 13005KT 21/19 A3006 RMK A01 T02060190  RH  091%=      5-min Rain = 0
KTH1 062321Z 13005KT 21/19 A3006 RMK A01 T02060191  RH  091%=      5-min Rain = 0
KTH1 062322Z 13005KT 21/19 A3006 RMK A01 T02060191  RH  091%=      5-min Rain = 0
KTH1 062323Z 13005KT 21/19 A3006 RMK A01 T02060191  RH  091%=      5-min Rain = 0
KTH1 062324Z 13004KT 21/19 A3006 RMK A01 T02060191  RH  091%=      5-min Rain = 0
KTH1 062325Z 13003KT 21/19 A3006 RMK A01 T02060191  RH  091%=      5-min Rain = 0
KTH1 062326Z 13004KT 21/19 A3005 RMK A01 T02060191  RH  091%=      5-min Rain = 0
KTH1 062327Z 13004KT 21/19 A3005 RMK A01 T02050190  RH  091%=      5-min Rain = 0
KTH1 062328Z 14004KT 21/19 A3005 RMK A01 T02050190  RH  091%=      5-min Rain = 0
KTH1 062329Z 14004KT 21/19 A3005 RMK A01 T02050190  RH  091%=      5-min Rain = 0
KTH1 062330Z 14004KT 21/19 A3005 RMK A01 T02050190  RH  091%=      5-min Rain = 0
KTH1 062331Z 13003KT 21/19 A3005 RMK A01 T02050190  RH  092%=      5-min Rain = 0
KTH1 062332Z 13003KT 20/19 A3005 RMK A01 T02040190  RH  092%=      5-min Rain = 0
KTH1 062333Z 13004KT 20/19 A3005 RMK A01 T02040190  RH  092%=      5-min Rain = 0
KTH1 062334Z 13004KT 20/19 A3005 RMK A01 T02040190  RH  092%=      5-min Rain = 0
KTH1 062335Z 13004KT 20/19 A3005 RMK A01 T02040190  RH  092%=      5-min Rain = 0
KTH1 062336Z 13005KT 20/19 A3005 RMK A01 T02030190  RH  092%=      5-min Rain = 0
KTH1 062337Z 13006KT 20/19 A3005 RMK A01 T02030190  RH  092%=      5-min Rain = 0
KTH1 062338Z 13007KT 20/19 A3005 RMK A01 T02030190  RH  092%=      5-min Rain = 0
KTH1 062339Z 13007KT 20/19 A3005 RMK A01 T02030191  RH  093%=      5-min Rain = 0
KTH1 062340Z 13006KT 20/19 A3005 RMK A01 T02030191  RH  093%=      5-min Rain = 0
KTH1 062341Z 12007KT 20/19 A3005 RMK A01 T02030191  RH  093%=      5-min Rain = 0
KTH1 062342Z 12007KT 20/19 A3005 RMK A01 T02030191  RH  093%=      5-min Rain = 0
KTH1 062343Z 12007KT 20/19 A3005 RMK A01 T02030191  RH  093%=      5-min Rain = 0
KTH1 062344Z 12007KT 20/19 A3004 RMK A01 T02030192  RH  093%=      5-min Rain = 0
KTH1 062345Z 12006KT 20/19 A3004 RMK A01 T02030192  RH  093%=      5-min Rain = 0
KTH1 062346Z 12007KT 20/19 A3005 RMK A01 T02030192  RH  093%=      5-min Rain = 0
KTH1 062347Z 13007KT 20/19 A3005 RMK A01 T02030192  RH  093%=      5-min Rain = 0
KTH1 062348Z 13008KT 20/19 A3005 RMK A01 T02040192  RH  093%=      5-min Rain = 0
KTH1 062349Z 14012G17KT 20/19 A3005 RMK A01 T02040192  RH  093%=      5-min Rain = 0
KTH1 062350Z 14011KT 21/19 A3006 RMK A01 T02050193  RH  092%=      5-min Rain = 0
KTH1 062351Z 14011G17KT 21/19 A3006 RMK A01 T02060193  RH  092%=      5-min Rain = 0
KTH1 062352Z 15013KT 21/19 A3006 RMK A01 T02070193  RH  092%=      5-min Rain = 0
KTH1 062353Z 15012KT 21/19 A3006 RMK A01 T02070194  RH  092%=      5-min Rain = 0
KTH1 062354Z 15012KT 21/19 A3006 RMK A01 T02070193  RH  092%=      5-min Rain = 0
KTH1 062355Z 14009KT 21/19 A3006 RMK A01 T02070193  RH  091%=      5-min Rain = 0
KTH1 062356Z 14011KT 21/19 A3006 RMK A01 T02070192  RH  091%=      5-min Rain = 0
KTH1 062357Z 14010KT 21/19 A3006 RMK A01 T02080191  RH  090%=      5-min Rain = 0
KTH1 062358Z 13006KT 21/19 A3006 RMK A01 T02080191  RH  090%=      5-min Rain = 0
KTH1 062359Z 13007KT 21/19 A3006 RMK A01 T02070190  RH  090%=      5-min Rain = 0
KTH1 070000Z 13006KT 21/19 A3005 RMK A01 T02070190  RH  090%=      5-min Rain = 0
KTH1 070001Z 13008KT 21/19 A3005 RMK A01 T02070189  RH  090%=      5-min Rain = 0
KTH1 070002Z 13006KT 21/19 A3006 RMK A01 T02070188  RH  089%=      5-min Rain = 0
KTH1 070003Z 14007KT 21/19 A3006 RMK A01 T02060188  RH  089%=      5-min Rain = 0
KTH1 070004Z 14007KT 21/19 A3006 RMK A01 T02070188  RH  089%=      5-min Rain = 0
KTH1 070005Z 13007KT 21/19 A3006 RMK A01 T02070188  RH  089%=      5-min Rain = 0
KTH1 070006Z 13006KT 21/19 A3006 RMK A01 T02070187  RH  089%=      5-min Rain = 0
KTH1 070007Z 14005KT 21/19 A3006 RMK A01 T02060187  RH  088%=      5-min Rain = 0
KTH1 070008Z 13005KT 21/19 A3006 RMK A01 T02070187  RH  088%=      5-min Rain = 0
KTH1 070009Z 13005KT 21/19 A3006 RMK A01 T02060186  RH  088%=      5-min Rain = 0
KTH1 070010Z 12006KT 21/19 A3006 RMK A01 T02060185  RH  088%=      5-min Rain = 0
KTH1 070011Z 12006KT 21/19 A3006 RMK A01 T02060185  RH  088%=      5-min Rain = 0
KTH1 070012Z 13006KT 21/19 A3006 RMK A01 T02050185  RH  088%=      5-min Rain = 0
KTH1 070013Z 13006KT 21/19 A3005 RMK A01 T02050185  RH  089%=      5-min Rain = 0
KTH1 070014Z 14006KT 20/19 A3005 RMK A01 T02040185  RH  089%=      5-min Rain = 0
KTH1 070015Z 13005KT 20/19 A3006 RMK A01 T02040186  RH  089%=      5-min Rain = 0
KTH1 070016Z 14006KT 20/19 A3006 RMK A01 T02040186  RH  090%=      5-min Rain = 0
KTH1 070017Z 14006KT 20/19 A3006 RMK A01 T02030187  RH  091%=      5-min Rain = 0
KTH1 070018Z 13007KT 20/19 A3006 RMK A01 T02040189  RH  091%=      5-min Rain = 0
KTH1 070019Z 13006KT 21/19 A3006 RMK A01 T02050190  RH  091%=      5-min Rain = 0
KTH1 070020Z 13006KT 21/19 A3006 RMK A01 T02050190  RH  091%=      5-min Rain = 0
KTH1 070021Z 13005KT 21/19 A3006 RMK A01 T02050191  RH  091%=      5-min Rain = 0
KTH1 070022Z 13005KT 21/19 A3006 RMK A01 T02050191  RH  092%=      5-min Rain = 0
KTH1 070023Z 14005KT 21/19 A3005 RMK A01 T02050191  RH  092%=      5-min Rain = 0
KTH1 070024Z 14006KT 21/19 A3005 RMK A01 T02050192  RH  092%=      5-min Rain = 0
KTH1 070025Z 14007KT 21/19 A3005 RMK A01 T02050192  RH  092%=      5-min Rain = 0
KTH1 070026Z 14006KT 21/19 A3006 RMK A01 T02060193  RH  093%=      5-min Rain = 0
KTH1 070027Z 14005KT 21/19 A3006 RMK A01 T02060194  RH  093%=      5-min Rain = 0
KTH1 070028Z 14005KT 21/19 A3006 RMK A01 T02060194  RH  093%=      5-min Rain = 0
KTH1 070029Z 14007KT 21/19 A3006 RMK A01 T02060194  RH  093%=      5-min Rain = 0
KTH1 070030Z 14006KT 21/20 A3006 RMK A01 T02060195  RH  093%=      5-min Rain = 0
KTH1 070031Z 15006KT 21/20 A3006 RMK A01 T02060195  RH  093%=      5-min Rain = 0
KTH1 070032Z 15006KT 21/20 A3006 RMK A01 T02060196  RH  094%=      5-min Rain = 0
KTH1 070033Z 15005KT 21/20 A3006 RMK A01 T02060196  RH  094%=      5-min Rain = 0
KTH1 070034Z 15007KT 21/20 A3007 RMK A01 T02060196  RH  094%=      5-min Rain = 0
KTH1 070035Z 15005KT 21/20 A3007 RMK A01 T02060197  RH  094%=      5-min Rain = 0
KTH1 070036Z 15006KT 21/20 A3007 RMK A01 T02060197  RH  094%=      5-min Rain = 0.01
KTH1 070037Z 15006KT 21/20 A3007 RMK A01 T02060197  RH  095%=      5-min Rain = 0.01
KTH1 070038Z 14005KT 21/20 A3007 RMK A01 T02050198  RH  095%=      5-min Rain = 0
KTH1 070039Z 14005KT 21/20 A3007 RMK A01 T02050198  RH  096%=      5-min Rain = 0.01
KTH1 070040Z 15004KT 21/20 A3007 RMK A01 T02050198  RH  096%=      5-min Rain = 0
KTH1 070041Z 15004KT 20/20 A3007 RMK A01 T02040198  RH  096%=      5-min Rain = 0.01
KTH1 070042Z 18001KT 20/20 A3007 RMK A01 T02040198  RH  096%=      5-min Rain = 0
KTH1 070043Z 25001KT 20/20 A3007 RMK A01 T02040198  RH  096%=      5-min Rain = 0
KTH1 070044Z 31007G12KT 20/20 A3008 RMK A01 T02040197  RH  096%=      5-min Rain = 0
KTH1 070045Z 30013KT 20/19 A3009 RMK A01 T02000190  RH  094%=      5-min Rain = 0.01
KTH1 070046Z 30018KT 20/19 A3009 RMK A01 T01960185  RH  093%=      5-min Rain = 0
KTH1 070047Z 30017KT 19/18 A3009 RMK A01 T01930182  RH  093%=      5-min Rain = 0
KTH1 070048Z 30017KT 19/18 A3009 RMK A01 T01910178  RH  092%=      5-min Rain = 0.01
KTH1 070049Z 31019G24KT 19/17 A3009 RMK A01 T01880174  RH  091%=      5-min Rain = 0
KTH1 070050Z 32018KT 19/17 A3009 RMK A01 T01860172  RH  092%=      5-min Rain = 0.02
KTH1 070051Z 32018KT 18/17 A301 RMK A01 T01840170  RH  092%=      5-min Rain = 0.02
KTH1 070052Z 32015KT 18/17 A301 RMK A01 T01810166  RH  091%=      5-min Rain = 0.03
KTH1 070053Z 31019KT 18/16 A301 RMK A01 T01780163  RH  091%=      5-min Rain = 0.03
KTH1 070054Z 31018KT 17/16 A3011 RMK A01 T01740160  RH  091%=      5-min Rain = 0.03
KTH1 070055Z 30019KT 17/16 A3012 RMK A01 T01720159  RH  092%=      5-min Rain = 0.02
KTH1 070056Z 31017KT 17/16 A3012 RMK A01 T01700159  RH  093%=      5-min Rain = 0.04
KTH1 070057Z 32011G16KT 17/16 A3013 RMK A01 T01680158  RH  094%=      5-min Rain = 0.04
KTH1 070058Z 30012KT 17/16 A3013 RMK A01 T01680159  RH  094%=      5-min Rain = 0.04
KTH1 070059Z 27015KT 17/16 A3013 RMK A01 T01680158  RH  094%=      5-min Rain = 0.06
KTH1 070100Z 29016G22KT 17/16 A3013 RMK A01 T01670159  RH  095%=      5-min Rain = 0.07
KTH1 070101Z 30017KT 17/16 A3013 RMK A01 T01660161  RH  096%=      5-min Rain = 0.07
KTH1 070102Z 28016KT 17/16 A3013 RMK A01 T01670162  RH  097%=      5-min Rain = 0.1
KTH1 070103Z 29016G23KT 17/16 A3012 RMK A01 T01670163  RH  098%=      5-min Rain = 0.1
KTH1 070104Z 31017KT 17/17 A3011 RMK A01 T01680165  RH  098%=      5-min Rain = 0.1
KTH1 070105Z 32014KT 17/17 A301 RMK A01 T01690167  RH  099%=      5-min Rain = 0.05
KTH1 070106Z 34011KT 17/17 A3009 RMK A01 T01700169  RH  099%=      5-min Rain = 0.06
KTH1 070107Z 34011G17KT 17/17 A3008 RMK A01 T01710170  RH  099%=      5-min Rain = 0.05
KTH1 070108Z 33011KT 17/17 A3008 RMK A01 T01710170  RH  099%=      5-min Rain = 0.03
KTH1 070109Z 33009KT 17/17 A3009 RMK A01 T01710170  RH  099%=      5-min Rain = 0.04
KTH1 070110Z 33007KT 17/17 A3009 RMK A01 T01710170  RH  099%=      5-min Rain = 0.03
KTH1 070111Z 33010KT 17/17 A3009 RMK A01 T01710170  RH  099%=      5-min Rain = 0.01
KTH1 070112Z 32013KT 17/17 A3009 RMK A01 T01710170  RH  099%=      5-min Rain = 0.01
KTH1 070113Z 33009KT 17/17 A3009 RMK A01 T01710169  RH  099%=      5-min Rain = 0.01
KTH1 070114Z 32007KT 17/17 A301 RMK A01 T01700169  RH  099%=      5-min Rain = 0.01
KTH1 070115Z 35003KT 17/17 A301 RMK A01 T01700169  RH  099%=      5-min Rain = 0
KTH1 070116Z 35006G12KT 17/17 A301 RMK A01 T01700169  RH  099%=      5-min Rain = 0.01
KTH1 070117Z 35008KT 17/17 A301 RMK A01 T01710169  RH  099%=      5-min Rain = 0
KTH1 070118Z 33007KT 17/17 A301 RMK A01 T01700169  RH  099%=      5-min Rain = 0
KTH1 070119Z 35006KT 17/17 A301 RMK A01 T01710169  RH  099%=      5-min Rain = 0.01
KTH1 070120Z 34006KT 17/17 A301 RMK A01 T01710169  RH  099%=      5-min Rain = 0
KTH1 070121Z 31005KT 17/17 A301 RMK A01 T01700169  RH  099%=      5-min Rain = 0.01
KTH1 070122Z 31006KT 17/17 A301 RMK A01 T01700169  RH  099%=      5-min Rain = 0
KTH1 070123Z 33004KT 17/17 A301 RMK A01 T01700169  RH  099%=      5-min Rain = 0.01
KTH1 070124Z 35003KT 17/17 A3009 RMK A01 T01700168  RH  099%=      5-min Rain = 0
KTH1 070125Z 00003KT 17/17 A3009 RMK A01 T01690168  RH  099%=      5-min Rain = 0
KTH1 070126Z 01004KT 17/17 A3009 RMK A01 T01700168  RH  099%=      5-min Rain = 0.01
KTH1 070127Z 01007G13KT 17/17 A3009 RMK A01 T01700169  RH  099%=      5-min Rain = 0
KTH1 070128Z 35006G11KT 17/17 A3008 RMK A01 T01700169  RH  099%=      5-min Rain = 0
KTH1 070129Z 00005KT 17/17 A3008 RMK A01 T01700169  RH  099%=      5-min Rain = 0.01
KTH1 070130Z 34005KT 17/17 A3008 RMK A01 T01700169  RH  099%=      5-min Rain = 0
KTH1 070131Z 36004KT 17/17 A3008 RMK A01 T01700169  RH  099%=      5-min Rain = 0
KTH1 070132Z 34004KT 17/17 A3009 RMK A01 T01700169  RH  099%=      5-min Rain = 0.01
KTH1 070133Z 33005KT 17/17 A3009 RMK A01 T01700169  RH  099%=      5-min Rain = 0
KTH1 070134Z 33005KT 17/17 A3009 RMK A01 T01700169  RH  099%=      5-min Rain = 0
KTH1 070135Z 33004KT 17/17 A3009 RMK A01 T01700169  RH  099%=      5-min Rain = 0
KTH1 070136Z 35005KT 17/17 A3009 RMK A01 T01700168  RH  099%=      5-min Rain = 0
KTH1 070137Z 35005KT 17/17 A3009 RMK A01 T01700168  RH  099%=      5-min Rain = 0
KTH1 070138Z 35006KT 17/17 A3009 RMK A01 T01700168  RH  099%=      5-min Rain = 0
KTH1 070139Z 34006KT 17/17 A3009 RMK A01 T01700168  RH  099%=      5-min Rain = 0
KTH1 070140Z 34006KT 17/17 A3009 RMK A01 T01700168  RH  099%=      5-min Rain = 0
KTH1 070141Z 33006KT 17/17 A3009 RMK A01 T01690168  RH  099%=      5-min Rain = 0
KTH1 070142Z 33005KT 17/17 A3009 RMK A01 T01690167  RH  099%=      5-min Rain = 0
KTH1 070143Z 33005KT 17/17 A301 RMK A01 T01690167  RH  099%=      5-min Rain = 0
KTH1 070144Z 32005KT 17/17 A301 RMK A01 T01690167  RH  099%=      5-min Rain = 0
KTH1 070145Z 32005KT 17/17 A301 RMK A01 T01690167  RH  099%=      5-min Rain = 0
KTH1 070146Z 32006KT 17/17 A301 RMK A01 T01690167  RH  099%=      5-min Rain = 0
KTH1 070147Z 33005KT 17/17 A301 RMK A01 T01680167  RH  099%=      5-min Rain = 0
KTH1 070148Z 33004KT 17/17 A301 RMK A01 T01680166  RH  099%=      5-min Rain = 0
KTH1 070149Z 33004KT 17/17 A3011 RMK A01 T01690167  RH  099%=      5-min Rain = 0
KTH1 070150Z 33004KT 17/17 A3011 RMK A01 T01690167  RH  099%=      5-min Rain = 0
KTH1 070151Z 33003KT 17/17 A3011 RMK A01 T01690167  RH  099%=      5-min Rain = 0
KTH1 070152Z 32003KT 17/17 A3011 RMK A01 T01700167  RH  099%=      5-min Rain = 0
KTH1 070153Z 32003KT 17/17 A3011 RMK A01 T01700168  RH  099%=      5-min Rain = 0
KTH1 070154Z 33002KT 17/17 A3011 RMK A01 T01690167  RH  099%=      5-min Rain = 0
KTH1 070155Z 33003KT 17/17 A3011 RMK A01 T01690167  RH  099%=      5-min Rain = 0
KTH1 070156Z 33002KT 17/17 A3011 RMK A01 T01700167  RH  099%=      5-min Rain = 0
KTH1 070157Z 32002KT 17/17 A3011 RMK A01 T01690167  RH  099%=      5-min Rain = 0
KTH1 070158Z 31001KT 17/17 A3011 RMK A01 T01700168  RH  099%=      5-min Rain = 0
KTH1 070159Z 32001KT 17/17 A3011 RMK A01 T01700168  RH  099%=      5-min Rain = 0
KTH1 070200Z 28001KT 17/17 A3011 RMK A01 T01700168  RH  099%=      5-min Rain = 0
KTH1 070201Z 28001KT 17/17 A3011 RMK A01 T01690167  RH  099%=      5-min Rain = 0
KTH1 070202Z 31000KT 17/17 A3011 RMK A01 T01690167  RH  099%=      5-min Rain = 0.01
KTH1 070203Z 07000KT 17/17 A3011 RMK A01 T01690167  RH  099%=      5-min Rain = 0
KTH1 070204Z 08001KT 17/17 A3011 RMK A01 T01690167  RH  099%=      5-min Rain = 0
KTH1 070205Z 09002KT 17/17 A301 RMK A01 T01690167  RH  099%=      5-min Rain = 0
KTH1 070206Z 09002KT 17/17 A301 RMK A01 T01690167  RH  099%=      5-min Rain = 0
KTH1 070207Z 09002KT 17/17 A301 RMK A01 T01690167  RH  099%=      5-min Rain = 0
KTH1 070208Z 09002KT 17/17 A301 RMK A01 T01690167  RH  099%=      5-min Rain = 0
KTH1 070209Z 08002KT 17/17 A301 RMK A01 T01700168  RH  099%=      5-min Rain = 0
KTH1 070210Z 07002KT 17/17 A301 RMK A01 T01690168  RH  099%=      5-min Rain = 0
KTH1 070211Z 05002KT 17/17 A301 RMK A01 T01700168  RH  099%=      5-min Rain = 0
KTH1 070212Z 04003KT 17/17 A301 RMK A01 T01690168  RH  099%=      5-min Rain = 0
KTH1 070213Z 04003KT 17/17 A301 RMK A01 T01690168  RH  099%=      5-min Rain = 0
KTH1 070214Z 04003KT 17/17 A301 RMK A01 T01690168  RH  099%=      5-min Rain = 0
KTH1 070215Z 04003KT 17/17 A301 RMK A01 T01690168  RH  099%=      5-min Rain = 0
KTH1 070216Z 05003KT 17/17 A301 RMK A01 T01700168  RH  099%=      5-min Rain = 0
KTH1 070217Z 04002KT 17/17 A301 RMK A01 T01690168  RH  099%=      5-min Rain = 0
KTH1 070218Z 05003KT 17/17 A301 RMK A01 T01700169  RH  099%=      5-min Rain = 0
KTH1 070219Z 05003KT 17/17 A301 RMK A01 T01700169  RH  099%=      5-min Rain = 0
KTH1 070220Z 05004KT 17/17 A301 RMK A01 T01700169  RH  099%=      5-min Rain = 0
KTH1 070221Z 05004KT 17/17 A3009 RMK A01 T01710170  RH  099%=      5-min Rain = 0
KTH1 070222Z 05004KT 17/17 A3009 RMK A01 T01700169  RH  099%=      5-min Rain = 0
KTH1 070223Z 05004KT 17/17 A3009 RMK A01 T01700170  RH  099%=      5-min Rain = 0
KTH1 070224Z 05003KT 17/17 A3009 RMK A01 T01700170  RH  099%=      5-min Rain = 0
KTH1 070225Z 05003KT 17/17 A3009 RMK A01 T01700169  RH  099%=      5-min Rain = 0
KTH1 070226Z 05003KT 17/17 A3009 RMK A01 T01700169  RH  099%=      5-min Rain = 0
KTH1 070227Z 06003KT 17/17 A3009 RMK A01 T01710170  RH  099%=      5-min Rain = 0
KTH1 070228Z 06003KT 17/17 A3009 RMK A01 T01710170  RH  099%=      5-min Rain = 0
KTH1 070229Z 05003KT 17/17 A3009 RMK A01 T01710170  RH  099%=      5-min Rain = 0
KTH1 070230Z 06003KT 17/17 A3009 RMK A01 T01710170  RH  099%=      5-min Rain = 0
KTH1 070231Z 05003KT 17/17 A3009 RMK A01 T01710170  RH  099%=      5-min Rain = 0
KTH1 070232Z 04003KT 17/17 A3009 RMK A01 T01710171  RH  099%=      5-min Rain = 0
KTH1 070233Z 03003KT 17/17 A3009 RMK A01 T01710171  RH  099%=      5-min Rain = 0
KTH1 070234Z 02002KT 17/17 A3009 RMK A01 T01710171  RH  099%=      5-min Rain = 0
KTH1 070235Z 36001KT 17/17 A3009 RMK A01 T01710170  RH  099%=      5-min Rain = 0
KTH1 070236Z 33001KT 17/17 A301 RMK A01 T01710170  RH  099%=      5-min Rain = 0
KTH1 070237Z 31001KT 17/17 A301 RMK A01 T01690168  RH  099%=      5-min Rain = 0
KTH1 070238Z 32001KT 17/17 A301 RMK A01 T01680167  RH  099%=      5-min Rain = 0
KTH1 070239Z 34001KT 17/17 A301 RMK A01 T01680167  RH  099%=      5-min Rain = 0
KTH1 070240Z 00002KT 17/17 A301 RMK A01 T01670166  RH  099%=      5-min Rain = 0
KTH1 070241Z 01002KT 17/17 A3009 RMK A01 T01670166  RH  099%=      5-min Rain = 0
KTH1 070242Z 01002KT 17/17 A3009 RMK A01 T01670166  RH  099%=      5-min Rain = 0
KTH1 070243Z 01002KT 17/17 A3009 RMK A01 T01680167  RH  099%=      5-min Rain = 0
KTH1 070244Z 02003KT 17/17 A3009 RMK A01 T01680167  RH  100%=      5-min Rain = 0
KTH1 070245Z 03003KT 17/17 A3009 RMK A01 T01680168  RH  100%=      5-min Rain = 0
KTH1 070246Z 05004KT 17/17 A3009 RMK A01 T01690168  RH  100%=      5-min Rain = 0
KTH1 070247Z 06004KT 17/17 A3009 RMK A01 T01690169  RH  100%=      5-min Rain = 0
KTH1 070248Z 06004KT 17/17 A3009 RMK A01 T01690168  RH  100%=      5-min Rain = 0
KTH1 070249Z 07004KT 17/17 A3009 RMK A01 T01690169  RH  100%=      5-min Rain = 0
KTH1 070250Z 07004KT 17/17 A3009 RMK A01 T01700169  RH  100%=      5-min Rain = 0
KTH1 070251Z 08004KT 17/17 A3009 RMK A01 T01700170  RH  100%=      5-min Rain = 0
KTH1 070252Z 08004KT 17/17 A3009 RMK A01 T01710170  RH  100%=      5-min Rain = 0
KTH1 070253Z 09003KT 17/17 A3009 RMK A01 T01710170  RH  100%=      5-min Rain = 0
KTH1 070254Z 09004KT 17/17 A3009 RMK A01 T01710170  RH  100%=      5-min Rain = 0
KTH1 070255Z 11004KT 17/17 A3009 RMK A01 T01710171  RH  100%=      5-min Rain = 0
KTH1 070256Z 10004KT 17/17 A3009 RMK A01 T01710170  RH  100%=      5-min Rain = 0
KTH1 070257Z 09003KT 17/17 A3009 RMK A01 T01700170  RH  100%=      5-min Rain = 0
KTH1 070258Z 09002KT 17/17 A301 RMK A01 T01710170  RH  100%=      5-min Rain = 0
KTH1 070259Z 10000KT 17/17 A301 RMK A01 T01700170  RH  100%=      5-min Rain = 0
KTH1 070300Z 23001KT 17/17 A3011 RMK A01 T01700169  RH  100%=      5-min Rain = 0
KTH1 070301Z 23003KT 17/17 A3011 RMK A01 T01700170  RH  100%=      5-min Rain = 0
KTH1 070302Z 23003KT 17/17 A3011 RMK A01 T01690169  RH  100%=      5-min Rain = 0
KTH1 070303Z 19001KT 17/17 A3011 RMK A01 T01690169  RH  100%=      5-min Rain = 0
KTH1 070304Z 13002KT 17/17 A3011 RMK A01 T01690168  RH  100%=      5-min Rain = 0
KTH1 070305Z 12004KT 17/17 A3011 RMK A01 T01690168  RH  100%=      5-min Rain = 0
KTH1 070306Z 12004KT 17/17 A301 RMK A01 T01700169  RH  100%=      5-min Rain = 0.01
KTH1 070307Z 11003KT 17/17 A301 RMK A01 T01700170  RH  100%=      5-min Rain = 0
KTH1 070308Z 10002KT 17/17 A301 RMK A01 T01700170  RH  100%=      5-min Rain = 0
KTH1 070309Z 10001KT 17/17 A301 RMK A01 T01700170  RH  100%=      5-min Rain = 0
KTH1 070310Z 09000KT 17/17 A301 RMK A01 T01700170  RH  100%=      5-min Rain = 0.01
KTH1 070311Z 00000KT 17/17 A301 RMK A01 T01700170  RH  100%=      5-min Rain = 0
KTH1 070312Z 00000KT 17/17 A301 RMK A01 T01700170  RH  100%=      5-min Rain = 0
KTH1 070313Z 21001KT 17/17 A301 RMK A01 T01700170  RH  100%=      5-min Rain = 0
KTH1 070314Z 21002KT 17/17 A301 RMK A01 T01700170  RH  100%=      5-min Rain = 0
KTH1 070315Z 20002KT 17/17 A301 RMK A01 T01690168  RH  100%=      5-min Rain = 0.01
KTH1 070316Z 21002KT 17/16 A301 RMK A01 T01650164  RH  099%=      5-min Rain = 0
KTH1 070317Z 19002KT 16/16 A301 RMK A01 T01640163  RH  099%=      5-min Rain = 0
KTH1 070318Z 19002KT 16/16 A301 RMK A01 T01640163  RH  100%=      5-min Rain = 0
KTH1 070319Z 19003KT 16/16 A301 RMK A01 T01640164  RH  100%=      5-min Rain = 0.01
KTH1 070320Z 18003KT 17/17 A301 RMK A01 T01660165  RH  100%=      5-min Rain = 0
KTH1 070321Z 18003KT 17/17 A301 RMK A01 T01670167  RH  100%=      5-min Rain = 0.01
KTH1 070322Z 19004KT 17/17 A301 RMK A01 T01680168  RH  100%=      5-min Rain = 0
KTH1 070323Z 19004KT 17/17 A301 RMK A01 T01690169  RH  100%=      5-min Rain = 0.01
KTH1 070324Z 20002KT 17/17 A301 RMK A01 T01690170  RH  100%=      5-min Rain = 0
KTH1 070325Z 20002KT 17/17 A301 RMK A01 T01690170  RH  100%=      5-min Rain = 0.01
KTH1 070326Z 18002KT 17/17 A301 RMK A01 T01700170  RH  100%=      5-min Rain = 0.01
KTH1 070327Z 15002KT 17/17 A301 RMK A01 T01700170  RH  100%=      5-min Rain = 0.01
KTH1 070328Z 16004KT 17/17 A301 RMK A01 T01710171  RH  100%=      5-min Rain = 0.01
KTH1 070329Z 15003KT 17/17 A301 RMK A01 T01700170  RH  100%=      5-min Rain = 0
KTH1 070330Z 17004KT 17/17 A301 RMK A01 T01700170  RH  100%=      5-min Rain = 0.01
KTH1 070331Z 18004KT 17/17 A301 RMK A01 T01700170  RH  100%=      5-min Rain = 0
KTH1 070332Z 18003KT 17/17 A301 RMK A01 T01700170  RH  100%=      5-min Rain = 0
KTH1 070333Z 18002KT 17/17 A301 RMK A01 T01700171  RH  100%=      5-min Rain = 0
KTH1 070334Z 18002KT 17/17 A301 RMK A01 T01700170  RH  100%=      5-min Rain = 0
KTH1 070335Z 18001KT 17/17 A3011 RMK A01 T01710171  RH  100%=      5-min Rain = 0
KTH1 070336Z 22001KT 17/17 A3011 RMK A01 T01700170  RH  100%=      5-min Rain = 0
KTH1 070337Z 23001KT 17/17 A3011 RMK A01 T01700171  RH  100%=      5-min Rain = 0.01
KTH1 070338Z 22001KT 17/17 A3011 RMK A01 T01700170  RH  100%=      5-min Rain = 0
KTH1 070339Z 10001KT 17/17 A301 RMK A01 T01700170  RH  100%=      5-min Rain = 0
KTH1 070340Z 11003KT 17/17 A301 RMK A01 T01690170  RH  100%=      5-min Rain = 0
KTH1 070341Z 10003KT 17/17 A301 RMK A01 T01700170  RH  100%=      5-min Rain = 0
KTH1 070342Z 10004KT 17/17 A3009 RMK A01 T01700170  RH  100%=      5-min Rain = 0
KTH1 070343Z 12003KT 17/17 A3009 RMK A01 T01700170  RH  100%=      5-min Rain = 0
KTH1 070344Z 12003KT 17/17 A3009 RMK A01 T01700170  RH  100%=      5-min Rain = 0.01
KTH1 070345Z 12002KT 17/17 A3009 RMK A01 T01700170  RH  100%=      5-min Rain = 0
KTH1 070346Z 12002KT 17/17 A3009 RMK A01 T01700170  RH  100%=      5-min Rain = 0
KTH1 070347Z 12002KT 17/17 A3009 RMK A01 T01700170  RH  100%=      5-min Rain = 0
KTH1 070348Z 13002KT 17/17 A3009 RMK A01 T01700170  RH  100%=      5-min Rain = 0
KTH1 070349Z 12003KT 17/17 A3009 RMK A01 T01700170  RH  100%=      5-min Rain = 0
KTH1 070350Z 12003KT 17/17 A3009 RMK A01 T01700170  RH  100%=      5-min Rain = 0
KTH1 070351Z 12003KT 17/17 A3009 RMK A01 T01700170  RH  100%=      5-min Rain = 0
KTH1 070352Z 15003KT 17/17 A301 RMK A01 T01700170  RH  100%=      5-min Rain = 0
KTH1 070353Z 16002KT 17/17 A301 RMK A01 T01700170  RH  100%=      5-min Rain = 0
KTH1 070354Z 16002KT 17/17 A301 RMK A01 T01700170  RH  100%=      5-min Rain = 0
KTH1 070355Z 16001KT 17/17 A301 RMK A01 T01700170  RH  100%=      5-min Rain = 0
KTH1 070356Z 15003KT 17/17 A301 RMK A01 T01690170  RH  100%=      5-min Rain = 0
KTH1 070357Z 14004KT 17/17 A301 RMK A01 T01700170  RH  100%=      5-min Rain = 0
KTH1 070358Z 13005KT 17/17 A301 RMK A01 T01700170  RH  100%=      5-min Rain = 0
KTH1 070359Z 14005KT 17/17 A301 RMK A01 T01690170  RH  100%=      5-min Rain = 0
KTH1 070400Z 13005KT 17/17 A301 RMK A01 T01690170  RH  100%=      5-min Rain = 0
KTH1 070401Z 13005KT 17/17 A3009 RMK A01 T01690169  RH  100%=      5-min Rain = 0
KTH1 070402Z 14007KT 17/17 A3009 RMK A01 T01700170  RH  100%=      5-min Rain = 0
KTH1 070403Z 14007KT 17/17 A3009 RMK A01 T01690170  RH  100%=      5-min Rain = 0
KTH1 070404Z 14007KT 17/17 A3009 RMK A01 T01690169  RH  100%=      5-min Rain = 0
KTH1 070405Z 13006KT 17/17 A3009 RMK A01 T01690170  RH  100%=      5-min Rain = 0
KTH1 070406Z 13006KT 17/17 A3009 RMK A01 T01700170  RH  100%=      5-min Rain = 0
KTH1 070407Z 13006KT 17/17 A3008 RMK A01 T01690170  RH  100%=      5-min Rain = 0
KTH1 070408Z 13005KT 17/17 A3008 RMK A01 T01690169  RH  100%=      5-min Rain = 0
KTH1 070409Z 13004KT 17/17 A3008 RMK A01 T01690169  RH  100%=      5-min Rain = 0
KTH1 070410Z 13006KT 17/17 A3008 RMK A01 T01690169  RH  100%=      5-min Rain = 0
KTH1 070411Z 14005KT 17/17 A3009 RMK A01 T01690169  RH  100%=      5-min Rain = 0
KTH1 070412Z 14007KT 17/17 A3009 RMK A01 T01690169  RH  100%=      5-min Rain = 0
KTH1 070413Z 15008KT 17/17 A3009 RMK A01 T01690169  RH  100%=      5-min Rain = 0
KTH1 070414Z 14006KT 17/17 A3009 RMK A01 T01690169  RH  100%=      5-min Rain = 0
KTH1 070415Z 13004KT 17/17 A3009 RMK A01 T01690169  RH  100%=      5-min Rain = 0
KTH1 070416Z 13004KT 17/17 A3009 RMK A01 T01690169  RH  100%=      5-min Rain = 0
KTH1 070417Z 13005KT 17/17 A3009 RMK A01 T01690169  RH  100%=      5-min Rain = 0
KTH1 070418Z 12006KT 17/17 A3009 RMK A01 T01690169  RH  100%=      5-min Rain = 0
KTH1 070419Z 13005KT 17/17 A3009 RMK A01 T01690169  RH  100%=      5-min Rain = 0
KTH1 070420Z 13006KT 17/17 A3009 RMK A01 T01690169  RH  100%=      5-min Rain = 0
KTH1 070421Z 11004KT 17/17 A3009 RMK A01 T01690169  RH  100%=      5-min Rain = 0
KTH1 070422Z 12005KT 17/17 A3009 RMK A01 T01690169  RH  100%=      5-min Rain = 0
KTH1 070423Z 12005KT 17/17 A3009 RMK A01 T01690169  RH  100%=      5-min Rain = 0
KTH1 070424Z 12003KT 17/17 A3009 RMK A01 T01690169  RH  100%=      5-min Rain = 0
KTH1 070425Z 13004KT 17/17 A3009 RMK A01 T01690169  RH  100%=      5-min Rain = 0
KTH1 070426Z 14005KT 17/17 A301 RMK A01 T01690169  RH  100%=      5-min Rain = 0
KTH1 070427Z 13004KT 17/17 A301 RMK A01 T01690169  RH  100%=      5-min Rain = 0
KTH1 070428Z 14005KT 17/17 A301 RMK A01 T01690169  RH  100%=      5-min Rain = 0
KTH1 070429Z 14005KT 17/17 A301 RMK A01 T01690169  RH  100%=      5-min Rain = 0
KTH1 070430Z 14005KT 17/17 A3011 RMK A01 T01690169  RH  100%=      5-min Rain = 0
KTH1 070431Z 13004KT 17/17 A3011 RMK A01 T01690169  RH  100%=      5-min Rain = 0.01
KTH1 070432Z 13004KT 17/17 A3011 RMK A01 T01690169  RH  100%=      5-min Rain = 0
KTH1 070433Z 11002KT 17/17 A3011 RMK A01 T01690169  RH  100%=      5-min Rain = 0
KTH1 070434Z 10002KT 17/17 A3011 RMK A01 T01690169  RH  100%=      5-min Rain = 0
KTH1 070435Z 09002KT 17/17 A3011 RMK A01 T01690169  RH  100%=      5-min Rain = 0
KTH1 070436Z 12002KT 17/17 A3011 RMK A01 T01690169  RH  100%=      5-min Rain = 0
KTH1 070437Z 10002KT 17/17 A3011 RMK A01 T01690169  RH  100%=      5-min Rain = 0
KTH1 070438Z 09001KT 17/17 A3011 RMK A01 T01690169  RH  100%=      5-min Rain = 0
KTH1 070439Z 08001KT 17/17 A301 RMK A01 T01690169  RH  100%=      5-min Rain = 0
KTH1 070440Z 09001KT 17/17 A301 RMK A01 T01690169  RH  100%=      5-min Rain = 0
KTH1 070441Z 10002KT 17/17 A301 RMK A01 T01690169  RH  100%=      5-min Rain = 0
KTH1 070442Z 11002KT 17/17 A301 RMK A01 T01680169  RH  100%=      5-min Rain = 0
KTH1 070443Z 11003KT 17/17 A301 RMK A01 T01690169  RH  100%=      5-min Rain = 0
KTH1 070444Z 11004KT 17/17 A301 RMK A01 T01680168  RH  100%=      5-min Rain = 0
KTH1 070445Z 12005KT 17/17 A301 RMK A01 T01680168  RH  100%=      5-min Rain = 0
KTH1 070446Z 12005KT 17/17 A301 RMK A01 T01680168  RH  100%=      5-min Rain = 0
KTH1 070447Z 12004KT 17/17 A301 RMK A01 T01680168  RH  100%=      5-min Rain = 0.01
KTH1 070448Z 11004KT 17/17 A301 RMK A01 T01680168  RH  100%=      5-min Rain = 0.01
KTH1 070449Z 10004KT 17/17 A301 RMK A01 T01680168  RH  100%=      5-min Rain = 0
KTH1 070450Z 09003KT 17/17 A301 RMK A01 T01680168  RH  100%=      5-min Rain = 0
KTH1 070451Z 08003KT 17/17 A301 RMK A01 T01670168  RH  100%=      5-min Rain = 0
KTH1 070452Z 07002KT 17/17 A3011 RMK A01 T01670167  RH  100%=      5-min Rain = 0
KTH1 070453Z 03002KT 17/17 A3011 RMK A01 T01670167  RH  100%=      5-min Rain = 0.01
KTH1 070454Z 36002KT 17/17 A3011 RMK A01 T01670167  RH  100%=      5-min Rain = 0
KTH1 070455Z 34003KT 17/17 A3011 RMK A01 T01670167  RH  100%=      5-min Rain = 0
KTH1 070456Z 34003KT 17/17 A3011 RMK A01 T01670167  RH  100%=      5-min Rain = 0
KTH1 070457Z 35004KT 17/17 A3011 RMK A01 T01670167  RH  100%=      5-min Rain = 0
KTH1 070458Z 35003KT 17/17 A3011 RMK A01 T01660166  RH  100%=      5-min Rain = 0
KTH1 070459Z 00003KT 17/17 A3011 RMK A01 T01660167  RH  100%=      5-min Rain = 0.01
KTH1 070500Z 36004KT 17/17 A3011 RMK A01 T01660166  RH  100%=      5-min Rain = 0
KTH1 070501Z 01003KT 17/17 A3011 RMK A01 T01660166  RH  100%=      5-min Rain = 0
KTH1 070502Z 00004KT 17/17 A3011 RMK A01 T01660166  RH  100%=      5-min Rain = 0
KTH1 070503Z 01003KT 17/17 A3011 RMK A01 T01670167  RH  100%=      5-min Rain = 0.01
KTH1 070504Z 01002KT 17/17 A3011 RMK A01 T01670167  RH  100%=      5-min Rain = 0
KTH1 070505Z 01002KT 17/17 A3011 RMK A01 T01670167  RH  100%=      5-min Rain = 0
KTH1 070506Z 32001KT 17/17 A3012 RMK A01 T01670167  RH  100%=      5-min Rain = 0.01
KTH1 070507Z 28004KT 17/17 A3012 RMK A01 T01670167  RH  100%=      5-min Rain = 0
KTH1 070508Z 27007KT 17/17 A3013 RMK A01 T01660166  RH  100%=      5-min Rain = 0
KTH1 070509Z 25011KT 16/16 A3014 RMK A01 T01630163  RH  100%=      5-min Rain = 0.03
KTH1 070510Z 25013KT 16/16 A3014 RMK A01 T01600160  RH  100%=      5-min Rain = 0.04
KTH1 070511Z 24011KT 16/16 A3015 RMK A01 T01590159  RH  100%=      5-min Rain = 0.03
KTH1 070512Z 23009KT 16/16 A3015 RMK A01 T01610162  RH  100%=      5-min Rain = 0.03
KTH1 070513Z 23008KT 16/16 A3015 RMK A01 T01640164  RH  100%=      5-min Rain = 0.03
KTH1 070514Z 22006KT 17/17 A3015 RMK A01 T01650165  RH  100%=      5-min Rain = 0.04
KTH1 070515Z 22005KT 17/17 A3014 RMK A01 T01660166  RH  100%=      5-min Rain = 0.02
KTH1 070516Z 22005KT 17/17 A3014 RMK A01 T01670167  RH  100%=      5-min Rain = 0.04
KTH1 070517Z 21005KT 17/17 A3014 RMK A01 T01670167  RH  100%=      5-min Rain = 0.04
KTH1 070518Z 22005KT 17/17 A3014 RMK A01 T01670167  RH  100%=      5-min Rain = 0.03
KTH1 070519Z 22003KT 17/17 A3014 RMK A01 T01670167  RH  100%=      5-min Rain = 0.03
KTH1 070520Z 23003KT 17/17 A3013 RMK A01 T01670168  RH  100%=      5-min Rain = 0.01
KTH1 070521Z 23002KT 17/17 A3013 RMK A01 T01680168  RH  100%=      5-min Rain = 0.02
KTH1 070522Z 22003KT 17/17 A3013 RMK A01 T01680168  RH  100%=      5-min Rain = 0.02
KTH1 070523Z 21002KT 17/17 A3013 RMK A01 T01680168  RH  100%=      5-min Rain = 0.01
KTH1 070524Z 20002KT 17/17 A3013 RMK A01 T01680168  RH  100%=      5-min Rain = 0.01
KTH1 070525Z 18001KT 17/17 A3013 RMK A01 T01680168  RH  100%=      5-min Rain = 0.01
KTH1 070526Z 17001KT 17/17 A3012 RMK A01 T01670168  RH  100%=      5-min Rain = 0.01
KTH1 070527Z 15002KT 17/17 A3012 RMK A01 T01680168  RH  100%=      5-min Rain = 0
KTH1 070528Z 13002KT 17/17 A3012 RMK A01 T01680168  RH  100%=      5-min Rain = 0
KTH1 070529Z 12002KT 17/17 A3012 RMK A01 T01680168  RH  100%=      5-min Rain = 0
KTH1 070530Z 13002KT 17/17 A3012 RMK A01 T01680168  RH  100%=      5-min Rain = 0.01
KTH1 070531Z 14002KT 17/17 A3012 RMK A01 T01670167  RH  100%=      5-min Rain = 0
KTH1 070532Z 16002KT 17/17 A3012 RMK A01 T01680168  RH  100%=      5-min Rain = 0
KTH1 070533Z 18003KT 17/17 A3012 RMK A01 T01680168  RH  100%=      5-min Rain = 0
KTH1 070534Z 19004KT 17/17 A3012 RMK A01 T01670168  RH  100%=      5-min Rain = 0.01
KTH1 070535Z 18005KT 17/17 A3012 RMK A01 T01680168  RH  100%=      5-min Rain = 0
KTH1 070536Z 17005KT 17/17 A3012 RMK A01 T01680168  RH  100%=      5-min Rain = 0.01
KTH1 070537Z 15004KT 17/17 A3012 RMK A01 T01680168  RH  100%=      5-min Rain = 0
KTH1 070538Z 14004KT 17/17 A3012 RMK A01 T01680168  RH  100%=      5-min Rain = 0
KTH1 070539Z 13004KT 17/17 A3012 RMK A01 T01670168  RH  100%=      5-min Rain = 0.01
KTH1 070540Z 13002KT 17/17 A3012 RMK A01 T01680168  RH  100%=      5-min Rain = 0
KTH1 070541Z 14003KT 17/17 A3012 RMK A01 T01680168  RH  100%=      5-min Rain = 0
KTH1 070542Z 16003KT 17/17 A3011 RMK A01 T01680168  RH  100%=      5-min Rain = 0
KTH1 070543Z 16002KT 17/17 A3011 RMK A01 T01670168  RH  100%=      5-min Rain = 0.01
KTH1 070544Z 15001KT 17/17 A3011 RMK A01 T01680168  RH  100%=      5-min Rain = 0
KTH1 070545Z 13002KT 17/17 A3011 RMK A01 T01680168  RH  100%=      5-min Rain = 0
KTH1 070546Z 12002KT 17/17 A3011 RMK A01 T01670167  RH  100%=      5-min Rain = 0.01
KTH1 070547Z 14002KT 17/17 A3011 RMK A01 T01670167  RH  100%=      5-min Rain = 0
KTH1 070548Z 14001KT 17/17 A3011 RMK A01 T01670167  RH  100%=      5-min Rain = 0
KTH1 070549Z 16002KT 17/17 A3011 RMK A01 T01670167  RH  100%=      5-min Rain = 0.01
KTH1 070550Z 15003KT 17/17 A3011 RMK A01 T01670167  RH  100%=      5-min Rain = 0
KTH1 070551Z 15003KT 17/17 A3011 RMK A01 T01670167  RH  100%=      5-min Rain = 0
KTH1 070552Z 16004KT 17/17 A3011 RMK A01 T01670167  RH  100%=      5-min Rain = 0.01
KTH1 070553Z 15004KT 17/17 A3011 RMK A01 T01670167  RH  100%=      5-min Rain = 0
KTH1 070554Z 15004KT 17/17 A3011 RMK A01 T01660167  RH  100%=      5-min Rain = 0
KTH1 070555Z 15004KT 17/17 A3011 RMK A01 T01670167  RH  100%=      5-min Rain = 0
KTH1 070556Z 15004KT 17/17 A3011 RMK A01 T01660166  RH  100%=      5-min Rain = 0
KTH1 070557Z 14004KT 17/17 A301 RMK A01 T01660166  RH  100%=      5-min Rain = 0
KTH1 070558Z 14004KT 17/17 A301 RMK A01 T01660166  RH  100%=      5-min Rain = 0
KTH1 070559Z 14004KT 17/17 A301 RMK A01 T01660166  RH  100%=      5-min Rain = 0

Page generated in 0.0762 seconds.